GEFSGL_prec_meanprecacc_006.txt.gz
Total_Precipitation_Accumulation
0.00 0.00 0.00 0.00 0.00 0.00 0.00 0.00 0.00 0.00 0.00 0.00 0.00 0.00 0.01 0.01 0.03 0.05 0.08 0.10 0.13 0.14 0.16 0.18 0.19 0.18 0.18 0.16 0.18 0.15 0.07 0.04 0.04 0.04 0.03 0.02 0.01 0.01 0.00 0.00 0.00 0.00 0.00
0.00 0.00 0.00 0.00 0.00 0.00 0.00 0.00 0.00 0.00 0.00 0.00 0.00 0.01 0.01 0.01 0.02 0.07 0.15 0.14 0.13 0.16 0.23 0.32 0.32 0.31 0.21 0.13 0.15 0.11 0.05 0.03 0.02 0.01 0.00 0.00 0.00 0.00 0.00 0.00 0.00 0.00 0.00
0.00 0.00 0.00 0.00 0.00 0.00 0.00 0.00 0.00 0.00 0.00 0.00 0.00 0.01 0.01 0.00 0.01 0.06 0.14 0.14 0.17 0.26 0.36 0.35 0.29 0.29 0.19 0.12 0.10 0.07 0.04 0.02 0.01 0.00 0.00 0.00 0.00 0.00 0.00 0.00 0.00 0.00 0.00
0.00 0.00 0.00 0.00 0.00 0.00 0.00 0.00 0.00 0.00 0.00 0.00 0.00 0.01 0.02 0.01 0.02 0.06 0.12 0.16 0.25 0.38 0.36 0.19 0.15 0.16 0.12 0.08 0.05 0.02 0.01 0.00 0.00 0.00 0.00 0.00 0.00 0.00 0.00 0.00 0.00 0.00 0.00
0.00 0.00 0.00 0.00 0.00 0.00 0.00 0.00 0.00 0.00 0.00 0.00 0.00 0.01 0.01 0.00 0.02 0.07 0.14 0.11 0.12 0.17 0.15 0.08 0.05 0.04 0.03 0.02 0.01 0.00 0.00 0.00 0.00 0.00 0.00 0.00 0.00 0.00 0.00 0.00 0.00 0.00 0.00
0.00 0.00 0.00 0.00 0.00 0.00 0.00 0.00 0.00 0.00 0.00 0.00 0.00 0.00 0.00 0.00 0.01 0.04 0.05 0.05 0.05 0.05 0.03 0.02 0.01 0.00 0.00 0.00 0.00 0.00 0.00 0.00 0.00 0.00 0.00 0.00 0.00 0.00 0.00 0.00 0.00 0.00 0.00
0.00 0.00 0.00 0.00 0.00 0.01 0.01 0.01 0.01 0.00 0.00 0.00 0.01 0.00 0.00 0.00 0.00 0.00 0.00 0.01 0.01 0.00 0.00 0.00 0.00 0.00 0.00 0.00 0.00 0.00 0.00 0.00 0.00 0.00 0.00 0.00 0.00 0.00 0.00 0.00 0.00 0.00 0.00
0.00 0.00 0.01 0.01 0.01 0.02 0.03 0.02 0.02 0.01 0.00 0.00 0.00 0.00 0.00 0.00 0.00 0.00 0.00 0.00 0.00 0.00 0.00 0.00 0.00 0.00 0.00 0.00 0.00 0.00 0.00 0.00 0.00 0.00 0.00 0.00 0.00 0.00 0.00 0.00 0.00 0.00 0.00
0.01 0.03 0.05 0.05 0.05 0.06 0.07 0.07 0.06 0.04 0.02 0.01 0.00 0.00 0.00 0.00 0.00 0.00 0.00 0.00 0.00 0.00 0.00 0.00 0.00 0.00 0.00 0.00 0.00 0.00 0.00 0.00 0.00 0.00 0.00 0.00 0.00 0.00 0.00 0.00 0.00 0.00 0.00
0.01 0.03 0.05 0.08 0.09 0.09 0.10 0.11 0.10 0.08 0.05 0.02 0.00 0.00 0.00 0.00 0.00 0.00 0.00 0.00 0.00 0.00 0.00 0.00 0.00 0.00 0.00 0.00 0.00 0.00 0.00 0.00 0.00 0.00 0.00 0.00 0.00 0.00 0.00 0.00 0.00 0.00 0.00
0.00 0.01 0.02 0.05 0.09 0.11 0.12 0.13 0.14 0.13 0.10 0.04 0.01 0.00 0.00 0.00 0.00 0.00 0.00 0.00 0.00 0.00 0.00 0.00 0.00 0.00 0.00 0.00 0.00 0.00 0.00 0.00 0.00 0.00 0.00 0.00 0.00 0.00 0.00 0.00 0.00 0.00 0.00
0.00 0.01 0.02 0.04 0.10 0.13 0.13 0.14 0.16 0.16 0.16 0.09 0.02 0.00 0.00 0.00 0.00 0.00 0.00 0.00 0.00 0.00 0.00 0.00 0.00 0.00 0.00 0.00 0.00 0.00 0.00 0.00 0.00 0.00 0.00 0.00 0.00 0.00 0.00 0.00 0.00 0.00 0.00
0.00 0.01 0.03 0.04 0.13 0.24 0.23 0.18 0.18 0.19 0.20 0.14 0.04 0.01 0.00 0.00 0.00 0.00 0.00 0.00 0.00 0.00 0.00 0.00 0.00 0.00 0.00 0.00 0.00 0.00 0.00 0.00 0.00 0.00 0.00 0.00 0.00 0.00 0.00 0.00 0.00 0.00 0.00
0.00 0.00 0.02 0.05 0.17 0.37 0.43 0.35 0.28 0.25 0.24 0.18 0.06 0.02 0.01 0.00 0.00 0.00 0.00 0.00 0.00 0.00 0.00 0.00 0.00 0.00 0.00 0.00 0.00 0.00 0.00 0.00 0.00 0.00 0.00 0.00 0.00 0.00 0.00 0.00 0.00 0.00 0.00
0.00 0.00 0.01 0.05 0.15 0.35 0.48 0.47 0.40 0.36 0.33 0.25 0.10 0.02 0.01 0.01 0.00 0.00 0.00 0.00 0.00 0.00 0.00 0.00 0.00 0.00 0.00 0.00 0.00 0.00 0.00 0.00 0.00 0.00 0.00 0.00 0.00 0.00 0.00 0.00 0.00 0.00 0.00
0.00 0.01 0.02 0.04 0.12 0.30 0.50 0.56 0.47 0.40 0.38 0.31 0.15 0.04 0.01 0.01 0.01 0.00 0.00 0.00 0.00 0.00 0.00 0.00 0.00 0.00 0.00 0.00 0.00 0.00 0.00 0.00 0.00 0.00 0.00 0.00 0.00 0.00 0.00 0.00 0.00 0.00 0.00
0.01 0.01 0.01 0.03 0.06 0.18 0.42 0.63 0.62 0.45 0.38 0.29 0.14 0.04 0.02 0.02 0.01 0.01 0.00 0.00 0.00 0.00 0.00 0.00 0.00 0.00 0.00 0.00 0.00 0.00 0.00 0.00 0.00 0.00 0.00 0.00 0.00 0.00 0.00 0.00 0.00 0.00 0.00
0.00 0.00 0.00 0.01 0.03 0.10 0.30 0.54 0.69 0.59 0.42 0.25 0.11 0.04 0.03 0.03 0.02 0.01 0.00 0.00 0.00 0.00 0.00 0.00 0.00 0.00 0.00 0.00 0.00 0.00 0.00 0.00 0.00 0.00 0.00 0.00 0.00 0.00 0.00 0.00 0.00 0.00 0.00
0.00 0.00 0.00 0.00 0.01 0.05 0.21 0.43 0.59 0.58 0.40 0.27 0.14 0.04 0.03 0.05 0.05 0.02 0.00 0.00 0.00 0.00 0.00 0.00 0.00 0.00 0.00 0.00 0.00 0.00 0.00 0.00 0.00 0.00 0.00 0.00 0.00 0.00 0.00 0.00 0.00 0.00 0.00
0.00 0.00 0.00 0.00 0.00 0.03 0.12 0.31 0.47 0.50 0.37 0.27 0.18 0.06 0.02 0.01 0.01 0.01 0.00 0.00 0.00 0.00 0.00 0.00 0.00 0.00 0.00 0.00 0.00 0.00 0.00 0.00 0.00 0.00 0.00 0.00 0.00 0.00 0.00 0.00 0.00 0.00 0.00
0.01 0.00 0.00 0.00 0.01 0.03 0.09 0.22 0.37 0.41 0.31 0.23 0.18 0.09 0.03 0.01 0.01 0.00 0.00 0.00 0.00 0.00 0.00 0.00 0.00 0.00 0.00 0.00 0.00 0.00 0.00 0.00 0.00 0.00 0.00 0.00 0.00 0.00 0.00 0.00 0.00 0.00 0.00
0.00 0.00 0.00 0.01 0.01 0.04 0.10 0.19 0.29 0.32 0.24 0.19 0.17 0.10 0.04 0.02 0.01 0.01 0.00 0.00 0.00 0.00 0.00 0.00 0.00 0.00 0.00 0.00 0.00 0.00 0.00 0.00 0.00 0.00 0.00 0.00 0.00 0.00 0.00 0.00 0.00 0.00 0.00
0.00 0.00 0.00 0.01 0.02 0.04 0.11 0.17 0.21 0.20 0.15 0.12 0.10 0.06 0.02 0.01 0.01 0.01 0.01 0.00 0.00 0.00 0.00 0.00 0.00 0.00 0.00 0.00 0.00 0.00 0.00 0.00 0.00 0.00 0.00 0.00 0.00 0.00 0.00 0.00 0.00 0.00 0.00
0.00 0.00 0.01 0.02 0.03 0.04 0.08 0.14 0.13 0.11 0.07 0.05 0.04 0.03 0.01 0.01 0.00 0.00 0.00 0.00 0.00 0.00 0.00 0.00 0.00 0.00 0.00 0.00 0.00 0.00 0.00 0.00 0.00 0.00 0.00 0.00 0.00 0.00 0.00 0.00 0.00 0.00 0.00
0.00 0.01 0.02 0.03 0.03 0.04 0.06 0.08 0.07 0.05 0.03 0.02 0.02 0.01 0.01 0.00 0.00 0.00 0.00 0.00 0.00 0.00 0.00 0.00 0.00 0.00 0.00 0.00 0.00 0.00 0.00 0.00 0.00 0.00 0.00 0.00 0.00 0.00 0.00 0.00 0.00 0.00 0.00
0.01 0.02 0.03 0.05 0.04 0.03 0.04 0.04 0.03 0.02 0.01 0.01 0.01 0.00 0.00 0.00 0.00 0.00 0.00 0.00 0.00 0.00 0.00 0.00 0.00 0.00 0.00 0.00 0.00 0.00 0.00 0.00 0.00 0.00 0.00 0.00 0.00 0.00 0.00 0.00 0.00 0.00 0.00

GEFSGL_prec_meanprecacc_012.txt.gz
Total_Precipitation_Accumulation
0.00 0.00 0.00 0.02 0.03 0.03 0.03 0.03 0.02 0.01 0.00 0.00 0.00 0.00 0.01 0.01 0.03 0.07 0.10 0.12 0.16 0.18 0.20 0.24 0.27 0.28 0.28 0.26 0.30 0.29 0.22 0.23 0.21 0.15 0.15 0.14 0.11 0.07 0.03 0.02 0.01 0.01 0.01
0.00 0.00 0.00 0.01 0.01 0.03 0.05 0.06 0.05 0.03 0.01 0.01 0.01 0.01 0.01 0.01 0.03 0.08 0.16 0.15 0.15 0.18 0.27 0.38 0.41 0.43 0.34 0.27 0.29 0.25 0.19 0.20 0.17 0.13 0.12 0.11 0.10 0.06 0.03 0.01 0.00 0.00 0.00
0.00 0.00 0.00 0.00 0.00 0.01 0.03 0.04 0.05 0.04 0.03 0.02 0.01 0.01 0.01 0.01 0.02 0.07 0.15 0.16 0.19 0.28 0.39 0.41 0.39 0.43 0.35 0.28 0.24 0.19 0.15 0.14 0.12 0.10 0.11 0.11 0.09 0.04 0.02 0.01 0.00 0.00 0.00
0.00 0.00 0.00 0.00 0.01 0.01 0.01 0.01 0.02 0.03 0.04 0.03 0.02 0.02 0.02 0.01 0.02 0.07 0.13 0.18 0.27 0.40 0.39 0.26 0.27 0.34 0.32 0.25 0.19 0.13 0.10 0.09 0.08 0.08 0.09 0.09 0.06 0.04 0.02 0.01 0.00 0.00 0.00
0.03 0.03 0.03 0.03 0.03 0.03 0.02 0.02 0.02 0.02 0.03 0.04 0.03 0.02 0.01 0.00 0.02 0.08 0.14 0.12 0.14 0.19 0.18 0.12 0.13 0.19 0.26 0.23 0.17 0.12 0.09 0.08 0.07 0.05 0.04 0.05 0.04 0.03 0.02 0.01 0.00 0.00 0.00
0.03 0.03 0.02 0.02 0.02 0.01 0.01 0.01 0.01 0.02 0.03 0.05 0.05 0.03 0.01 0.00 0.01 0.04 0.06 0.06 0.06 0.05 0.04 0.04 0.03 0.03 0.07 0.11 0.12 0.11 0.09 0.07 0.05 0.03 0.02 0.02 0.02 0.02 0.01 0.00 0.00 0.00 0.00
0.01 0.01 0.01 0.01 0.01 0.01 0.01 0.01 0.01 0.02 0.04 0.07 0.08 0.06 0.03 0.01 0.00 0.00 0.00 0.02 0.01 0.01 0.01 0.01 0.01 0.01 0.01 0.02 0.03 0.03 0.03 0.02 0.01 0.01 0.01 0.01 0.01 0.00 0.00 0.00 0.00 0.00 0.00
0.00 0.01 0.01 0.02 0.01 0.02 0.03 0.03 0.04 0.05 0.05 0.08 0.11 0.10 0.08 0.03 0.00 0.00 0.00 0.00 0.00 0.00 0.00 0.00 0.00 0.00 0.00 0.00 0.00 0.00 0.00 0.00 0.00 0.00 0.00 0.00 0.00 0.00 0.00 0.00 0.00 0.00 0.00
0.01 0.03 0.05 0.05 0.05 0.06 0.07 0.08 0.10 0.10 0.10 0.10 0.12 0.14 0.11 0.07 0.01 0.00 0.00 0.00 0.00 0.00 0.00 0.00 0.00 0.00 0.00 0.00 0.00 0.00 0.00 0.00 0.00 0.00 0.00 0.00 0.00 0.00 0.00 0.00 0.00 0.00 0.00
0.01 0.03 0.05 0.08 0.09 0.09 0.10 0.11 0.13 0.13 0.14 0.15 0.14 0.15 0.15 0.11 0.03 0.00 0.00 0.00 0.00 0.00 0.00 0.00 0.00 0.00 0.00 0.00 0.00 0.00 0.00 0.00 0.00 0.00 0.00 0.00 0.00 0.00 0.00 0.00 0.00 0.00 0.00
0.00 0.01 0.02 0.05 0.10 0.11 0.12 0.14 0.15 0.17 0.18 0.19 0.18 0.18 0.20 0.18 0.08 0.01 0.00 0.00 0.00 0.00 0.00 0.00 0.00 0.00 0.00 0.00 0.00 0.00 0.00 0.00 0.00 0.00 0.00 0.00 0.00 0.00 0.00 0.00 0.00 0.00 0.00
0.01 0.02 0.02 0.05 0.11 0.13 0.14 0.16 0.18 0.19 0.23 0.26 0.29 0.29 0.28 0.24 0.14 0.03 0.00 0.00 0.00 0.00 0.00 0.00 0.00 0.00 0.00 0.00 0.00 0.00 0.00 0.00 0.00 0.00 0.00 0.00 0.00 0.00 0.00 0.00 0.00 0.00 0.00
0.01 0.02 0.05 0.06 0.15 0.25 0.24 0.20 0.20 0.21 0.24 0.28 0.33 0.37 0.37 0.31 0.20 0.06 0.00 0.00 0.00 0.00 0.00 0.00 0.00 0.00 0.00 0.00 0.00 0.00 0.00 0.00 0.00 0.00 0.00 0.00 0.00 0.00 0.00 0.00 0.00 0.00 0.00
0.03 0.03 0.05 0.08 0.20 0.39 0.45 0.36 0.29 0.26 0.27 0.30 0.31 0.33 0.34 0.35 0.25 0.09 0.02 0.00 0.00 0.00 0.00 0.00 0.00 0.00 0.00 0.00 0.00 0.00 0.00 0.00 0.00 0.00 0.00 0.00 0.00 0.00 0.00 0.00 0.00 0.00 0.00
0.04 0.04 0.04 0.08 0.18 0.37 0.50 0.49 0.41 0.37 0.36 0.36 0.34 0.30 0.26 0.24 0.19 0.09 0.02 0.00 0.00 0.00 0.00 0.00 0.00 0.00 0.00 0.00 0.00 0.00 0.00 0.00 0.00 0.00 0.00 0.00 0.00 0.00 0.00 0.00 0.00 0.00 0.00
0.06 0.05 0.05 0.07 0.14 0.33 0.53 0.59 0.49 0.41 0.40 0.39 0.34 0.29 0.22 0.14 0.11 0.07 0.04 0.02 0.01 0.00 0.00 0.00 0.00 0.00 0.00 0.00 0.00 0.00 0.00 0.00 0.00 0.00 0.00 0.00 0.00 0.00 0.00 0.00 0.00 0.00 0.00
0.08 0.07 0.06 0.06 0.10 0.22 0.45 0.66 0.67 0.50 0.43 0.38 0.29 0.20 0.16 0.12 0.09 0.06 0.05 0.04 0.02 0.01 0.00 0.00 0.00 0.00 0.00 0.00 0.00 0.00 0.00 0.00 0.00 0.00 0.00 0.00 0.00 0.00 0.00 0.00 0.00 0.00 0.00
0.09 0.07 0.06 0.06 0.07 0.14 0.35 0.60 0.77 0.70 0.59 0.46 0.28 0.14 0.11 0.09 0.07 0.04 0.04 0.04 0.02 0.01 0.00 0.00 0.00 0.00 0.00 0.00 0.00 0.00 0.00 0.00 0.00 0.00 0.00 0.00 0.00 0.00 0.00 0.00 0.00 0.00 0.00
0.09 0.07 0.05 0.05 0.06 0.10 0.27 0.50 0.69 0.75 0.67 0.59 0.38 0.16 0.10 0.11 0.09 0.05 0.03 0.02 0.01 0.00 0.00 0.00 0.00 0.00 0.00 0.00 0.00 0.00 0.00 0.00 0.00 0.00 0.00 0.00 0.00 0.00 0.00 0.00 0.00 0.00 0.00
0.07 0.06 0.05 0.05 0.05 0.08 0.19 0.39 0.60 0.72 0.66 0.62 0.47 0.19 0.08 0.06 0.05 0.03 0.02 0.01 0.01 0.00 0.00 0.00 0.00 0.00 0.00 0.00 0.00 0.00 0.00 0.00 0.00 0.00 0.00 0.00 0.00 0.00 0.00 0.00 0.00 0.00 0.00
0.07 0.05 0.04 0.04 0.06 0.09 0.15 0.32 0.52 0.67 0.62 0.55 0.45 0.21 0.06 0.03 0.02 0.01 0.00 0.00 0.00 0.00 0.00 0.00 0.00 0.00 0.00 0.00 0.00 0.00 0.00 0.00 0.00 0.00 0.00 0.00 0.00 0.00 0.00 0.00 0.00 0.00 0.00
0.06 0.04 0.04 0.05 0.07 0.10 0.16 0.30 0.48 0.61 0.55 0.49 0.39 0.20 0.07 0.03 0.02 0.01 0.00 0.00 0.00 0.00 0.00 0.00 0.00 0.00 0.00 0.00 0.00 0.00 0.00 0.00 0.00 0.00 0.00 0.00 0.00 0.00 0.00 0.00 0.00 0.00 0.00
0.04 0.03 0.03 0.04 0.06 0.08 0.17 0.31 0.45 0.51 0.45 0.38 0.27 0.12 0.04 0.02 0.01 0.01 0.01 0.00 0.00 0.00 0.00 0.00 0.00 0.00 0.00 0.00 0.00 0.00 0.00 0.00 0.00 0.00 0.00 0.00 0.00 0.00 0.00 0.00 0.00 0.00 0.00
0.03 0.03 0.03 0.05 0.07 0.11 0.21 0.33 0.39 0.38 0.31 0.22 0.15 0.08 0.03 0.02 0.01 0.01 0.01 0.01 0.00 0.00 0.00 0.00 0.00 0.00 0.00 0.00 0.00 0.00 0.00 0.00 0.00 0.00 0.00 0.00 0.00 0.00 0.00 0.00 0.00 0.00 0.00
0.02 0.03 0.05 0.07 0.10 0.14 0.20 0.26 0.27 0.23 0.16 0.10 0.07 0.04 0.03 0.02 0.01 0.01 0.01 0.01 0.01 0.00 0.00 0.00 0.00 0.00 0.00 0.00 0.00 0.00 0.00 0.00 0.00 0.00 0.00 0.00 0.00 0.00 0.00 0.00 0.00 0.00 0.00
0.01 0.03 0.05 0.09 0.11 0.12 0.14 0.16 0.15 0.11 0.07 0.05 0.03 0.02 0.02 0.02 0.01 0.01 0.01 0.01 0.01 0.01 0.00 0.00 0.00 0.00 0.00 0.00 0.00 0.00 0.00 0.00 0.00 0.00 0.00 0.00 0.00 0.00 0.00 0.00 0.00 0.00 0.00

GEFSGL_prec_meanprecacc_018.txt.gz
Total_Precipitation_Accumulation
0.01 0.01 0.01 0.03 0.04 0.06 0.09 0.12 0.13 0.11 0.10 0.09 0.09 0.08 0.06 0.05 0.05 0.07 0.11 0.13 0.18 0.21 0.24 0.30 0.35 0.39 0.41 0.39 0.46 0.48 0.44 0.50 0.47 0.36 0.31 0.28 0.23 0.15 0.08 0.06 0.04 0.02 0.02
0.02 0.01 0.01 0.01 0.02 0.03 0.06 0.09 0.10 0.11 0.11 0.11 0.11 0.11 0.09 0.06 0.06 0.10 0.17 0.16 0.17 0.20 0.31 0.42 0.46 0.49 0.44 0.40 0.45 0.43 0.41 0.50 0.48 0.31 0.26 0.22 0.19 0.13 0.09 0.07 0.04 0.02 0.01
0.01 0.01 0.00 0.00 0.00 0.01 0.03 0.05 0.06 0.08 0.10 0.10 0.11 0.10 0.10 0.08 0.07 0.10 0.17 0.17 0.20 0.30 0.42 0.44 0.42 0.47 0.43 0.39 0.40 0.37 0.38 0.49 0.45 0.31 0.24 0.21 0.18 0.12 0.10 0.07 0.05 0.03 0.01
0.00 0.00 0.01 0.01 0.01 0.01 0.01 0.02 0.03 0.05 0.07 0.09 0.11 0.11 0.11 0.09 0.08 0.12 0.16 0.20 0.28 0.41 0.41 0.29 0.29 0.37 0.37 0.33 0.30 0.27 0.28 0.32 0.30 0.26 0.23 0.22 0.17 0.13 0.12 0.09 0.06 0.03 0.01
0.03 0.04 0.04 0.04 0.05 0.05 0.05 0.04 0.04 0.04 0.05 0.08 0.10 0.10 0.10 0.09 0.08 0.13 0.19 0.14 0.15 0.20 0.19 0.14 0.14 0.21 0.29 0.28 0.23 0.22 0.22 0.22 0.22 0.21 0.19 0.20 0.20 0.18 0.13 0.10 0.07 0.03 0.01
0.04 0.03 0.03 0.03 0.03 0.03 0.03 0.03 0.03 0.03 0.05 0.09 0.12 0.12 0.11 0.10 0.10 0.10 0.10 0.10 0.09 0.07 0.07 0.07 0.05 0.04 0.09 0.16 0.20 0.21 0.22 0.21 0.20 0.21 0.22 0.20 0.19 0.20 0.15 0.09 0.05 0.03 0.02
0.01 0.02 0.02 0.02 0.02 0.02 0.02 0.02 0.03 0.03 0.05 0.09 0.12 0.14 0.14 0.15 0.12 0.08 0.06 0.05 0.04 0.03 0.03 0.03 0.03 0.02 0.02 0.04 0.07 0.10 0.12 0.14 0.14 0.17 0.21 0.20 0.18 0.16 0.12 0.08 0.07 0.06 0.03
0.00 0.01 0.01 0.02 0.02 0.03 0.04 0.05 0.06 0.07 0.07 0.10 0.14 0.16 0.18 0.19 0.15 0.11 0.08 0.05 0.03 0.03 0.02 0.02 0.02 0.01 0.01 0.01 0.01 0.02 0.04 0.05 0.06 0.09 0.11 0.12 0.11 0.10 0.07 0.06 0.05 0.04 0.02
0.01 0.03 0.05 0.05 0.06 0.07 0.08 0.10 0.12 0.13 0.12 0.12 0.14 0.17 0.19 0.21 0.19 0.14 0.11 0.07 0.05 0.04 0.02 0.01 0.02 0.02 0.00 0.01 0.01 0.01 0.01 0.02 0.02 0.03 0.03 0.03 0.02 0.02 0.02 0.02 0.01 0.01 0.00
0.01 0.03 0.05 0.08 0.10 0.10 0.12 0.14 0.16 0.17 0.17 0.16 0.15 0.17 0.21 0.25 0.24 0.18 0.13 0.09 0.08 0.06 0.04 0.01 0.01 0.00 0.00 0.00 0.01 0.02 0.01 0.00 0.00 0.00 0.00 0.00 0.00 0.00 0.00 0.00 0.00 0.00 0.00
0.02 0.02 0.03 0.07 0.12 0.14 0.16 0.19 0.20 0.21 0.23 0.24 0.22 0.21 0.24 0.28 0.32 0.24 0.17 0.12 0.11 0.09 0.05 0.02 0.00 0.00 0.00 0.00 0.01 0.02 0.01 0.00 0.00 0.00 0.00 0.00 0.00 0.00 0.00 0.00 0.00 0.00 0.00
0.04 0.05 0.06 0.10 0.15 0.15 0.19 0.22 0.25 0.27 0.31 0.32 0.34 0.33 0.32 0.33 0.35 0.33 0.23 0.15 0.15 0.13 0.07 0.03 0.00 0.00 0.00 0.00 0.00 0.01 0.00 0.00 0.00 0.00 0.00 0.00 0.00 0.00 0.00 0.00 0.00 0.00 0.00
0.06 0.08 0.10 0.13 0.22 0.32 0.31 0.27 0.28 0.30 0.31 0.34 0.39 0.43 0.44 0.42 0.39 0.36 0.30 0.20 0.19 0.19 0.10 0.04 0.00 0.00 0.00 0.00 0.00 0.00 0.00 0.00 0.00 0.00 0.00 0.00 0.00 0.00 0.00 0.00 0.00 0.00 0.00
0.10 0.10 0.12 0.16 0.27 0.48 0.54 0.44 0.36 0.33 0.34 0.38 0.39 0.41 0.45 0.49 0.45 0.37 0.30 0.25 0.26 0.27 0.14 0.03 0.00 0.00 0.00 0.00 0.00 0.00 0.00 0.00 0.00 0.00 0.00 0.00 0.00 0.00 0.00 0.00 0.00 0.00 0.00
0.14 0.13 0.13 0.17 0.27 0.46 0.58 0.56 0.48 0.44 0.42 0.42 0.42 0.41 0.40 0.38 0.40 0.39 0.29 0.27 0.32 0.31 0.14 0.03 0.00 0.00 0.00 0.00 0.00 0.00 0.00 0.00 0.00 0.00 0.00 0.00 0.00 0.00 0.00 0.00 0.00 0.00 0.00
0.19 0.18 0.18 0.19 0.25 0.42 0.60 0.65 0.52 0.43 0.42 0.41 0.36 0.34 0.31 0.26 0.27 0.32 0.30 0.27 0.30 0.25 0.11 0.02 0.00 0.00 0.00 0.00 0.00 0.00 0.00 0.00 0.00 0.00 0.00 0.00 0.00 0.00 0.00 0.00 0.00 0.00 0.00
0.24 0.22 0.21 0.20 0.21 0.31 0.53 0.74 0.75 0.55 0.44 0.38 0.29 0.20 0.18 0.15 0.19 0.24 0.31 0.27 0.22 0.16 0.06 0.01 0.00 0.00 0.00 0.00 0.00 0.00 0.00 0.00 0.00 0.00 0.00 0.00 0.00 0.00 0.00 0.00 0.00 0.00 0.00
0.23 0.21 0.19 0.18 0.18 0.25 0.44 0.69 0.86 0.80 0.65 0.48 0.29 0.14 0.11 0.11 0.14 0.22 0.28 0.25 0.18 0.10 0.03 0.01 0.00 0.00 0.00 0.00 0.00 0.00 0.00 0.00 0.00 0.00 0.00 0.00 0.00 0.00 0.00 0.00 0.00 0.00 0.00
0.21 0.19 0.17 0.17 0.17 0.20 0.36 0.59 0.78 0.85 0.78 0.69 0.44 0.17 0.10 0.12 0.15 0.22 0.23 0.19 0.13 0.07 0.02 0.01 0.00 0.00 0.00 0.00 0.00 0.00 0.00 0.00 0.00 0.00 0.00 0.00 0.00 0.00 0.00 0.00 0.00 0.00 0.00
0.17 0.12 0.11 0.13 0.14 0.17 0.27 0.48 0.70 0.83 0.78 0.73 0.56 0.23 0.08 0.07 0.09 0.15 0.17 0.14 0.11 0.05 0.02 0.01 0.00 0.00 0.00 0.00 0.00 0.00 0.00 0.00 0.00 0.00 0.00 0.00 0.00 0.00 0.00 0.00 0.00 0.00 0.00
0.15 0.11 0.06 0.08 0.13 0.18 0.25 0.42 0.63 0.78 0.72 0.65 0.54 0.25 0.07 0.04 0.04 0.07 0.08 0.08 0.09 0.05 0.02 0.01 0.00 0.00 0.00 0.00 0.00 0.00 0.00 0.00 0.00 0.00 0.00 0.00 0.00 0.00 0.00 0.00 0.00 0.00 0.00
0.12 0.12 0.11 0.12 0.17 0.20 0.26 0.41 0.59 0.70 0.63 0.57 0.46 0.22 0.08 0.04 0.03 0.04 0.04 0.04 0.05 0.02 0.02 0.01 0.00 0.00 0.00 0.00 0.00 0.00 0.00 0.00 0.00 0.00 0.00 0.00 0.00 0.00 0.00 0.00 0.00 0.00 0.00
0.09 0.09 0.11 0.14 0.17 0.17 0.27 0.42 0.55 0.59 0.52 0.45 0.33 0.15 0.05 0.03 0.03 0.03 0.03 0.02 0.02 0.01 0.01 0.00 0.00 0.00 0.00 0.00 0.00 0.00 0.00 0.00 0.00 0.00 0.00 0.00 0.00 0.00 0.00 0.00 0.00 0.00 0.00
0.09 0.10 0.12 0.15 0.18 0.22 0.32 0.44 0.48 0.47 0.38 0.28 0.18 0.09 0.04 0.03 0.02 0.01 0.01 0.01 0.01 0.01 0.00 0.00 0.00 0.00 0.00 0.00 0.00 0.00 0.00 0.00 0.00 0.00 0.00 0.00 0.00 0.00 0.00 0.00 0.00 0.00 0.00
0.09 0.11 0.15 0.19 0.22 0.26 0.33 0.39 0.38 0.32 0.22 0.15 0.09 0.05 0.03 0.03 0.01 0.01 0.01 0.01 0.01 0.00 0.00 0.00 0.00 0.00 0.00 0.00 0.00 0.00 0.00 0.00 0.00 0.00 0.00 0.00 0.00 0.00 0.00 0.00 0.00 0.00 0.00
0.08 0.10 0.14 0.19 0.20 0.21 0.25 0.26 0.24 0.17 0.10 0.07 0.04 0.03 0.03 0.03 0.02 0.01 0.01 0.01 0.01 0.01 0.00 0.00 0.00 0.00 0.00 0.00 0.00 0.00 0.00 0.00 0.00 0.00 0.00 0.00 0.00 0.00 0.00 0.00 0.00 0.00 0.00

GEFSGL_prec_meanprecacc_024.txt.gz
Total_Precipitation_Accumulation
0.01 0.01 0.01 0.03 0.04 0.06 0.10 0.12 0.13 0.12 0.12 0.12 0.14 0.15 0.15 0.14 0.14 0.15 0.15 0.15 0.18 0.21 0.24 0.30 0.35 0.39 0.41 0.39 0.47 0.49 0.46 0.54 0.51 0.41 0.40 0.39 0.35 0.27 0.16 0.11 0.07 0.04 0.03
0.02 0.01 0.01 0.01 0.02 0.03 0.06 0.09 0.10 0.11 0.11 0.11 0.11 0.12 0.12 0.11 0.13 0.18 0.23 0.20 0.19 0.21 0.31 0.43 0.46 0.49 0.44 0.40 0.45 0.44 0.43 0.56 0.55 0.38 0.34 0.31 0.32 0.26 0.19 0.14 0.09 0.04 0.02
0.01 0.01 0.00 0.00 0.00 0.01 0.03 0.05 0.06 0.08 0.10 0.10 0.11 0.10 0.10 0.09 0.10 0.16 0.24 0.22 0.24 0.31 0.42 0.44 0.42 0.47 0.43 0.39 0.40 0.39 0.41 0.55 0.53 0.40 0.34 0.34 0.33 0.23 0.18 0.13 0.08 0.05 0.02
0.00 0.00 0.01 0.01 0.01 0.01 0.01 0.02 0.03 0.05 0.07 0.09 0.11 0.11 0.11 0.09 0.09 0.14 0.21 0.25 0.32 0.45 0.43 0.29 0.30 0.37 0.37 0.33 0.30 0.28 0.31 0.36 0.36 0.35 0.35 0.36 0.33 0.27 0.21 0.15 0.09 0.05 0.03
0.04 0.04 0.04 0.04 0.05 0.05 0.05 0.04 0.04 0.04 0.05 0.08 0.10 0.10 0.10 0.09 0.08 0.15 0.22 0.18 0.20 0.25 0.23 0.16 0.15 0.21 0.29 0.28 0.23 0.22 0.24 0.24 0.25 0.26 0.27 0.29 0.32 0.30 0.23 0.15 0.11 0.06 0.03
0.04 0.04 0.03 0.03 0.03 0.04 0.04 0.03 0.03 0.03 0.06 0.09 0.12 0.12 0.12 0.10 0.10 0.11 0.13 0.14 0.14 0.13 0.12 0.11 0.07 0.05 0.09 0.17 0.20 0.21 0.23 0.23 0.23 0.25 0.27 0.26 0.25 0.25 0.20 0.13 0.08 0.05 0.04
0.01 0.02 0.02 0.02 0.02 0.02 0.02 0.03 0.03 0.04 0.06 0.10 0.13 0.14 0.15 0.15 0.13 0.08 0.07 0.08 0.09 0.08 0.09 0.08 0.06 0.03 0.03 0.04 0.08 0.10 0.13 0.16 0.18 0.22 0.26 0.26 0.24 0.21 0.16 0.13 0.09 0.07 0.05
0.00 0.01 0.01 0.02 0.03 0.04 0.05 0.05 0.07 0.07 0.08 0.11 0.14 0.17 0.19 0.19 0.16 0.11 0.10 0.08 0.08 0.09 0.09 0.08 0.06 0.03 0.02 0.01 0.02 0.03 0.05 0.07 0.09 0.12 0.16 0.18 0.18 0.16 0.13 0.11 0.09 0.08 0.05
0.02 0.03 0.05 0.06 0.06 0.07 0.09 0.11 0.13 0.13 0.13 0.13 0.14 0.18 0.20 0.22 0.20 0.14 0.12 0.09 0.10 0.11 0.11 0.10 0.08 0.05 0.02 0.01 0.01 0.01 0.02 0.04 0.07 0.09 0.10 0.11 0.13 0.11 0.08 0.06 0.05 0.03 0.04
0.02 0.04 0.06 0.09 0.11 0.11 0.12 0.14 0.16 0.17 0.18 0.17 0.15 0.18 0.22 0.25 0.24 0.18 0.15 0.12 0.14 0.15 0.16 0.14 0.12 0.07 0.03 0.01 0.02 0.02 0.01 0.01 0.02 0.04 0.05 0.06 0.05 0.05 0.05 0.04 0.03 0.02 0.02
0.03 0.04 0.05 0.09 0.14 0.15 0.17 0.19 0.21 0.21 0.23 0.24 0.22 0.21 0.25 0.29 0.32 0.24 0.19 0.16 0.19 0.23 0.24 0.21 0.17 0.12 0.05 0.02 0.02 0.03 0.01 0.01 0.01 0.01 0.02 0.02 0.02 0.02 0.02 0.02 0.02 0.02 0.01
0.07 0.08 0.08 0.12 0.17 0.17 0.21 0.24 0.27 0.29 0.32 0.33 0.35 0.33 0.32 0.33 0.36 0.33 0.24 0.18 0.23 0.30 0.33 0.31 0.26 0.20 0.09 0.03 0.01 0.01 0.01 0.01 0.01 0.01 0.02 0.01 0.01 0.01 0.01 0.01 0.01 0.00 0.00
0.10 0.10 0.12 0.15 0.24 0.34 0.34 0.29 0.30 0.32 0.33 0.35 0.40 0.44 0.44 0.43 0.39 0.37 0.30 0.22 0.26 0.36 0.40 0.42 0.37 0.28 0.15 0.06 0.02 0.01 0.00 0.00 0.01 0.01 0.01 0.01 0.01 0.00 0.00 0.00 0.00 0.00 0.00
0.15 0.14 0.15 0.19 0.30 0.51 0.58 0.48 0.39 0.35 0.35 0.39 0.40 0.42 0.46 0.50 0.46 0.38 0.31 0.26 0.32 0.44 0.46 0.43 0.41 0.33 0.21 0.10 0.04 0.01 0.00 0.00 0.00 0.00 0.00 0.00 0.00 0.00 0.00 0.00 0.00 0.00 0.00
0.19 0.18 0.18 0.22 0.32 0.51 0.63 0.61 0.51 0.47 0.45 0.44 0.43 0.43 0.41 0.40 0.42 0.41 0.31 0.29 0.38 0.48 0.47 0.46 0.43 0.35 0.23 0.13 0.06 0.02 0.00 0.00 0.00 0.00 0.00 0.00 0.00 0.00 0.00 0.00 0.00 0.00 0.00
0.25 0.23 0.24 0.25 0.31 0.48 0.67 0.71 0.57 0.46 0.44 0.42 0.37 0.35 0.33 0.27 0.29 0.34 0.32 0.30 0.37 0.42 0.40 0.43 0.42 0.33 0.21 0.12 0.05 0.02 0.01 0.00 0.00 0.00 0.00 0.00 0.00 0.00 0.00 0.00 0.00 0.00 0.00
0.29 0.28 0.27 0.26 0.28 0.38 0.60 0.80 0.80 0.59 0.45 0.39 0.30 0.21 0.19 0.16 0.20 0.26 0.33 0.31 0.31 0.32 0.29 0.30 0.30 0.25 0.16 0.09 0.03 0.01 0.00 0.00 0.00 0.00 0.00 0.00 0.00 0.00 0.00 0.00 0.00 0.00 0.00
0.28 0.27 0.24 0.23 0.22 0.29 0.49 0.74 0.90 0.83 0.67 0.49 0.29 0.15 0.12 0.11 0.15 0.25 0.33 0.32 0.29 0.25 0.19 0.18 0.16 0.15 0.10 0.05 0.02 0.01 0.00 0.00 0.00 0.00 0.00 0.00 0.00 0.00 0.00 0.00 0.00 0.00 0.00
0.25 0.23 0.21 0.20 0.20 0.23 0.39 0.63 0.81 0.87 0.80 0.71 0.45 0.17 0.11 0.13 0.18 0.27 0.31 0.29 0.24 0.16 0.11 0.09 0.08 0.06 0.04 0.02 0.01 0.00 0.00 0.00 0.00 0.00 0.00 0.00 0.00 0.00 0.00 0.00 0.00 0.00 0.00
0.21 0.16 0.14 0.15 0.16 0.19 0.29 0.49 0.72 0.85 0.80 0.75 0.58 0.24 0.09 0.09 0.12 0.22 0.28 0.28 0.23 0.13 0.07 0.05 0.03 0.02 0.01 0.00 0.00 0.00 0.00 0.00 0.00 0.00 0.00 0.00 0.00 0.00 0.00 0.00 0.00 0.00 0.00
0.20 0.15 0.10 0.10 0.15 0.20 0.26 0.43 0.65 0.79 0.74 0.68 0.56 0.26 0.08 0.06 0.07 0.13 0.19 0.22 0.21 0.12 0.06 0.03 0.01 0.00 0.00 0.00 0.00 0.00 0.00 0.00 0.00 0.00 0.00 0.00 0.00 0.00 0.00 0.00 0.00 0.00 0.00
0.18 0.18 0.15 0.15 0.18 0.21 0.27 0.42 0.61 0.73 0.67 0.60 0.47 0.23 0.09 0.07 0.07 0.11 0.14 0.14 0.14 0.09 0.05 0.02 0.01 0.00 0.00 0.00 0.00 0.00 0.00 0.00 0.00 0.00 0.00 0.00 0.00 0.00 0.00 0.00 0.00 0.00 0.00
0.16 0.17 0.17 0.17 0.19 0.18 0.28 0.43 0.56 0.61 0.54 0.46 0.33 0.15 0.06 0.05 0.06 0.08 0.09 0.09 0.09 0.06 0.03 0.02 0.01 0.00 0.00 0.00 0.00 0.00 0.00 0.00 0.00 0.00 0.00 0.00 0.00 0.00 0.00 0.00 0.00 0.00 0.00
0.16 0.19 0.20 0.20 0.21 0.23 0.32 0.44 0.49 0.47 0.39 0.29 0.19 0.10 0.06 0.04 0.04 0.04 0.05 0.05 0.05 0.03 0.02 0.02 0.01 0.00 0.00 0.00 0.00 0.00 0.00 0.00 0.00 0.00 0.00 0.00 0.00 0.00 0.00 0.00 0.00 0.00 0.00
0.14 0.17 0.21 0.25 0.27 0.29 0.35 0.40 0.38 0.32 0.22 0.15 0.09 0.05 0.04 0.04 0.03 0.02 0.02 0.03 0.03 0.02 0.01 0.01 0.01 0.00 0.00 0.00 0.00 0.00 0.00 0.00 0.00 0.00 0.00 0.00 0.00 0.00 0.00 0.00 0.00 0.00 0.00
0.11 0.13 0.16 0.21 0.23 0.24 0.26 0.27 0.25 0.17 0.11 0.07 0.04 0.03 0.03 0.03 0.02 0.01 0.01 0.01 0.01 0.01 0.01 0.01 0.00 0.00 0.00 0.00 0.00 0.00 0.00 0.00 0.00 0.00 0.00 0.00 0.00 0.00 0.00 0.00 0.00 0.00 0.00

GEFSGL_prec_meanprecacc_030.txt.gz
Total_Precipitation_Accumulation
0.01 0.01 0.01 0.03 0.04 0.06 0.10 0.12 0.13 0.12 0.12 0.12 0.14 0.16 0.17 0.19 0.22 0.26 0.28 0.28 0.30 0.30 0.31 0.33 0.37 0.40 0.41 0.39 0.47 0.49 0.47 0.54 0.51 0.41 0.40 0.40 0.36 0.28 0.18 0.13 0.09 0.06 0.05
0.02 0.01 0.01 0.01 0.02 0.03 0.06 0.09 0.10 0.11 0.11 0.11 0.11 0.12 0.13 0.13 0.19 0.28 0.38 0.38 0.36 0.35 0.42 0.50 0.50 0.52 0.45 0.40 0.45 0.44 0.43 0.56 0.56 0.39 0.35 0.33 0.34 0.27 0.20 0.16 0.10 0.06 0.03
0.01 0.01 0.00 0.00 0.00 0.01 0.03 0.05 0.06 0.08 0.10 0.10 0.11 0.10 0.10 0.09 0.11 0.19 0.31 0.36 0.42 0.51 0.60 0.57 0.51 0.52 0.46 0.41 0.41 0.39 0.41 0.55 0.54 0.41 0.35 0.36 0.36 0.27 0.21 0.16 0.11 0.07 0.04
0.00 0.00 0.01 0.01 0.01 0.01 0.01 0.02 0.03 0.05 0.07 0.09 0.11 0.11 0.11 0.09 0.09 0.15 0.22 0.29 0.41 0.58 0.61 0.49 0.47 0.49 0.44 0.36 0.32 0.29 0.31 0.36 0.36 0.37 0.37 0.40 0.38 0.33 0.26 0.19 0.14 0.08 0.05
0.04 0.04 0.04 0.04 0.05 0.05 0.05 0.04 0.04 0.04 0.05 0.08 0.10 0.10 0.10 0.09 0.08 0.15 0.22 0.19 0.22 0.30 0.33 0.29 0.31 0.39 0.43 0.36 0.26 0.23 0.24 0.24 0.26 0.28 0.30 0.33 0.38 0.38 0.30 0.20 0.15 0.11 0.06
0.04 0.04 0.03 0.03 0.03 0.04 0.04 0.03 0.03 0.03 0.06 0.09 0.12 0.12 0.12 0.10 0.10 0.11 0.13 0.14 0.14 0.14 0.15 0.18 0.17 0.18 0.22 0.28 0.27 0.24 0.24 0.23 0.24 0.27 0.30 0.30 0.29 0.29 0.23 0.15 0.11 0.09 0.08
0.01 0.02 0.02 0.02 0.03 0.03 0.03 0.03 0.03 0.04 0.06 0.10 0.13 0.14 0.15 0.15 0.13 0.08 0.07 0.08 0.09 0.08 0.09 0.10 0.11 0.11 0.12 0.13 0.16 0.15 0.15 0.16 0.18 0.23 0.28 0.28 0.26 0.23 0.18 0.15 0.12 0.10 0.07
0.01 0.01 0.02 0.03 0.03 0.05 0.06 0.06 0.08 0.08 0.08 0.11 0.14 0.17 0.19 0.19 0.16 0.11 0.10 0.08 0.08 0.09 0.09 0.08 0.08 0.08 0.09 0.09 0.09 0.08 0.08 0.09 0.10 0.13 0.18 0.20 0.21 0.19 0.16 0.14 0.12 0.11 0.07
0.02 0.04 0.06 0.07 0.08 0.10 0.12 0.14 0.16 0.16 0.15 0.14 0.15 0.18 0.20 0.22 0.20 0.14 0.13 0.10 0.10 0.11 0.11 0.11 0.10 0.08 0.08 0.09 0.08 0.05 0.04 0.07 0.09 0.11 0.14 0.17 0.20 0.18 0.14 0.11 0.10 0.08 0.07
0.03 0.05 0.08 0.12 0.16 0.18 0.20 0.22 0.23 0.23 0.21 0.19 0.17 0.18 0.22 0.25 0.24 0.18 0.15 0.12 0.14 0.15 0.16 0.16 0.16 0.12 0.10 0.09 0.09 0.07 0.03 0.03 0.05 0.07 0.11 0.16 0.15 0.15 0.14 0.10 0.08 0.06 0.04
0.05 0.06 0.08 0.13 0.19 0.21 0.24 0.27 0.29 0.28 0.29 0.27 0.23 0.22 0.25 0.29 0.32 0.24 0.19 0.16 0.19 0.24 0.24 0.24 0.22 0.20 0.15 0.11 0.10 0.10 0.06 0.04 0.04 0.06 0.09 0.13 0.15 0.15 0.12 0.10 0.09 0.06 0.03
0.09 0.10 0.11 0.16 0.22 0.24 0.29 0.32 0.35 0.37 0.39 0.39 0.38 0.34 0.33 0.33 0.36 0.33 0.24 0.18 0.23 0.30 0.34 0.34 0.32 0.31 0.24 0.18 0.15 0.11 0.09 0.07 0.06 0.07 0.10 0.12 0.14 0.14 0.11 0.10 0.09 0.06 0.02
0.13 0.13 0.16 0.19 0.29 0.40 0.41 0.38 0.40 0.42 0.41 0.41 0.45 0.46 0.46 0.44 0.40 0.37 0.30 0.22 0.26 0.36 0.41 0.45 0.44 0.42 0.38 0.29 0.24 0.18 0.11 0.08 0.08 0.08 0.08 0.09 0.09 0.09 0.08 0.08 0.07 0.04 0.02
0.18 0.17 0.18 0.23 0.35 0.56 0.65 0.56 0.49 0.46 0.45 0.46 0.45 0.45 0.48 0.52 0.47 0.38 0.31 0.26 0.32 0.44 0.47 0.47 0.50 0.51 0.51 0.46 0.36 0.26 0.15 0.10 0.10 0.08 0.07 0.08 0.08 0.08 0.07 0.05 0.04 0.03 0.02
0.22 0.20 0.20 0.26 0.37 0.56 0.69 0.67 0.59 0.56 0.55 0.54 0.49 0.46 0.43 0.42 0.43 0.42 0.32 0.29 0.38 0.49 0.48 0.50 0.53 0.57 0.58 0.56 0.47 0.34 0.23 0.16 0.12 0.09 0.08 0.08 0.07 0.07 0.07 0.05 0.03 0.02 0.01
0.29 0.25 0.26 0.29 0.35 0.53 0.72 0.78 0.63 0.53 0.53 0.50 0.43 0.39 0.35 0.30 0.31 0.35 0.32 0.31 0.37 0.43 0.41 0.46 0.52 0.55 0.57 0.56 0.51 0.40 0.30 0.21 0.12 0.08 0.08 0.08 0.06 0.05 0.05 0.04 0.03 0.02 0.01
0.33 0.30 0.29 0.29 0.30 0.40 0.63 0.84 0.86 0.65 0.52 0.45 0.34 0.25 0.22 0.18 0.22 0.28 0.33 0.32 0.32 0.32 0.30 0.33 0.40 0.45 0.50 0.52 0.49 0.39 0.31 0.22 0.12 0.08 0.07 0.06 0.05 0.04 0.03 0.03 0.02 0.02 0.01
0.32 0.29 0.26 0.24 0.23 0.30 0.50 0.76 0.93 0.88 0.73 0.53 0.32 0.18 0.15 0.13 0.17 0.26 0.34 0.33 0.30 0.26 0.20 0.22 0.27 0.35 0.42 0.48 0.47 0.39 0.32 0.22 0.11 0.06 0.05 0.04 0.03 0.02 0.02 0.01 0.01 0.01 0.00
0.29 0.25 0.22 0.21 0.20 0.23 0.40 0.64 0.82 0.89 0.83 0.73 0.47 0.19 0.13 0.15 0.19 0.28 0.32 0.30 0.26 0.19 0.14 0.15 0.19 0.26 0.33 0.40 0.42 0.37 0.30 0.19 0.07 0.03 0.03 0.02 0.01 0.01 0.01 0.01 0.00 0.00 0.00
0.24 0.19 0.15 0.16 0.17 0.19 0.30 0.50 0.73 0.86 0.81 0.77 0.60 0.25 0.10 0.10 0.13 0.24 0.31 0.33 0.28 0.18 0.13 0.13 0.14 0.20 0.26 0.31 0.33 0.29 0.24 0.14 0.04 0.01 0.01 0.01 0.00 0.00 0.00 0.00 0.00 0.00 0.00
0.23 0.18 0.11 0.10 0.15 0.20 0.26 0.43 0.65 0.80 0.75 0.69 0.57 0.27 0.09 0.07 0.10 0.18 0.28 0.31 0.27 0.18 0.14 0.13 0.13 0.16 0.20 0.22 0.21 0.17 0.13 0.07 0.02 0.01 0.00 0.00 0.00 0.00 0.00 0.00 0.00 0.00 0.00
0.20 0.20 0.16 0.15 0.19 0.21 0.27 0.42 0.61 0.74 0.68 0.61 0.49 0.24 0.11 0.09 0.10 0.18 0.23 0.23 0.21 0.16 0.13 0.12 0.11 0.12 0.14 0.13 0.11 0.08 0.05 0.03 0.01 0.00 0.00 0.00 0.00 0.00 0.00 0.00 0.00 0.00 0.00
0.17 0.18 0.17 0.17 0.19 0.18 0.28 0.43 0.56 0.61 0.54 0.47 0.34 0.17 0.08 0.08 0.10 0.14 0.16 0.15 0.15 0.12 0.10 0.10 0.09 0.09 0.08 0.06 0.04 0.03 0.02 0.01 0.00 0.00 0.00 0.00 0.00 0.00 0.00 0.00 0.00 0.00 0.00
0.18 0.20 0.21 0.21 0.21 0.24 0.33 0.44 0.49 0.47 0.39 0.30 0.21 0.13 0.08 0.07 0.08 0.09 0.10 0.11 0.11 0.09 0.08 0.06 0.05 0.04 0.03 0.02 0.01 0.01 0.00 0.00 0.00 0.00 0.00 0.00 0.00 0.00 0.00 0.00 0.00 0.00 0.00
0.15 0.18 0.22 0.26 0.28 0.30 0.35 0.40 0.38 0.32 0.23 0.16 0.11 0.08 0.06 0.06 0.06 0.07 0.07 0.07 0.08 0.07 0.05 0.04 0.02 0.01 0.01 0.01 0.00 0.00 0.00 0.00 0.00 0.00 0.00 0.00 0.00 0.00 0.00 0.00 0.00 0.00 0.00
0.12 0.14 0.17 0.22 0.23 0.24 0.26 0.27 0.25 0.18 0.11 0.07 0.05 0.04 0.04 0.04 0.04 0.04 0.04 0.05 0.05 0.05 0.04 0.03 0.01 0.01 0.00 0.00 0.00 0.00 0.00 0.00 0.00 0.00 0.00 0.00 0.00 0.00 0.00 0.00 0.00 0.00 0.00

GEFSGL_prec_meanprecacc_036.txt.gz
Total_Precipitation_Accumulation
0.01 0.01 0.01 0.03 0.04 0.06 0.10 0.12 0.13 0.12 0.12 0.12 0.14 0.16 0.17 0.19 0.23 0.27 0.31 0.35 0.45 0.57 0.64 0.65 0.63 0.57 0.53 0.47 0.51 0.51 0.47 0.55 0.52 0.42 0.41 0.41 0.37 0.29 0.18 0.14 0.09 0.07 0.07
0.02 0.01 0.01 0.01 0.02 0.03 0.06 0.09 0.10 0.11 0.11 0.11 0.11 0.12 0.13 0.13 0.19 0.28 0.39 0.41 0.43 0.51 0.73 0.93 0.92 0.86 0.70 0.57 0.55 0.50 0.46 0.58 0.56 0.40 0.36 0.35 0.35 0.29 0.21 0.16 0.10 0.06 0.04
0.01 0.01 0.00 0.00 0.00 0.01 0.03 0.05 0.06 0.08 0.10 0.11 0.11 0.11 0.10 0.09 0.11 0.19 0.32 0.36 0.45 0.59 0.75 0.87 0.97 1.03 0.87 0.71 0.61 0.51 0.48 0.59 0.56 0.43 0.38 0.38 0.38 0.29 0.22 0.17 0.11 0.07 0.04
0.00 0.00 0.01 0.01 0.01 0.01 0.01 0.02 0.03 0.05 0.07 0.10 0.11 0.11 0.11 0.09 0.09 0.15 0.23 0.29 0.42 0.60 0.66 0.61 0.72 0.95 0.99 0.84 0.66 0.53 0.48 0.47 0.42 0.41 0.41 0.43 0.41 0.35 0.27 0.20 0.15 0.09 0.05
0.04 0.04 0.04 0.04 0.05 0.05 0.05 0.04 0.04 0.05 0.06 0.09 0.11 0.12 0.11 0.09 0.09 0.16 0.23 0.20 0.23 0.31 0.35 0.34 0.40 0.59 0.85 0.95 0.81 0.63 0.50 0.41 0.37 0.36 0.36 0.38 0.41 0.40 0.31 0.21 0.16 0.11 0.07
0.04 0.04 0.03 0.04 0.04 0.04 0.04 0.04 0.04 0.05 0.08 0.12 0.15 0.15 0.14 0.10 0.10 0.12 0.14 0.15 0.15 0.16 0.17 0.20 0.22 0.26 0.39 0.61 0.76 0.77 0.69 0.52 0.40 0.37 0.38 0.36 0.33 0.32 0.24 0.16 0.12 0.09 0.09
0.02 0.02 0.02 0.03 0.04 0.04 0.04 0.05 0.06 0.08 0.11 0.15 0.19 0.20 0.20 0.19 0.14 0.09 0.07 0.10 0.12 0.12 0.12 0.13 0.13 0.15 0.21 0.28 0.41 0.50 0.55 0.51 0.43 0.39 0.38 0.36 0.32 0.27 0.20 0.16 0.13 0.10 0.07
0.01 0.02 0.03 0.04 0.05 0.07 0.08 0.10 0.12 0.14 0.16 0.19 0.22 0.24 0.27 0.26 0.19 0.12 0.10 0.09 0.13 0.14 0.14 0.12 0.11 0.11 0.13 0.19 0.25 0.29 0.33 0.34 0.31 0.28 0.29 0.31 0.31 0.27 0.21 0.17 0.14 0.12 0.09
0.03 0.05 0.08 0.09 0.11 0.14 0.16 0.19 0.22 0.24 0.23 0.23 0.25 0.28 0.30 0.32 0.25 0.17 0.14 0.13 0.16 0.17 0.17 0.15 0.14 0.12 0.10 0.11 0.16 0.21 0.24 0.25 0.26 0.25 0.25 0.29 0.31 0.26 0.21 0.15 0.12 0.10 0.10
0.04 0.07 0.10 0.15 0.20 0.22 0.25 0.29 0.31 0.32 0.31 0.29 0.27 0.29 0.33 0.37 0.32 0.21 0.17 0.17 0.20 0.21 0.23 0.22 0.17 0.14 0.12 0.10 0.12 0.15 0.17 0.20 0.21 0.20 0.21 0.23 0.23 0.21 0.19 0.14 0.10 0.08 0.07
0.06 0.08 0.10 0.16 0.24 0.27 0.30 0.34 0.37 0.38 0.38 0.38 0.33 0.32 0.36 0.40 0.41 0.28 0.21 0.19 0.23 0.28 0.29 0.28 0.26 0.20 0.15 0.12 0.12 0.14 0.14 0.17 0.20 0.21 0.21 0.22 0.24 0.22 0.17 0.15 0.13 0.09 0.07
0.11 0.12 0.13 0.19 0.26 0.28 0.36 0.39 0.43 0.46 0.48 0.48 0.47 0.44 0.43 0.43 0.42 0.37 0.26 0.20 0.25 0.34 0.39 0.39 0.37 0.32 0.24 0.19 0.16 0.14 0.14 0.15 0.19 0.22 0.25 0.24 0.23 0.22 0.18 0.16 0.16 0.13 0.10
0.15 0.16 0.18 0.22 0.32 0.45 0.48 0.44 0.47 0.50 0.50 0.51 0.55 0.56 0.55 0.53 0.47 0.39 0.31 0.23 0.27 0.39 0.46 0.49 0.47 0.43 0.38 0.30 0.25 0.20 0.17 0.15 0.18 0.21 0.23 0.22 0.18 0.16 0.16 0.18 0.19 0.16 0.14
0.21 0.19 0.21 0.26 0.38 0.60 0.70 0.62 0.56 0.55 0.56 0.58 0.55 0.55 0.58 0.61 0.55 0.44 0.34 0.28 0.33 0.45 0.49 0.48 0.50 0.52 0.53 0.48 0.38 0.28 0.20 0.18 0.19 0.19 0.20 0.22 0.19 0.17 0.17 0.15 0.15 0.14 0.14
0.25 0.22 0.23 0.28 0.40 0.59 0.73 0.72 0.64 0.62 0.63 0.62 0.59 0.56 0.52 0.50 0.50 0.46 0.36 0.34 0.42 0.51 0.52 0.55 0.56 0.59 0.61 0.59 0.51 0.39 0.30 0.28 0.25 0.24 0.24 0.23 0.20 0.18 0.16 0.14 0.11 0.09 0.08
0.31 0.27 0.28 0.31 0.38 0.56 0.76 0.82 0.68 0.57 0.55 0.52 0.47 0.45 0.41 0.35 0.33 0.36 0.33 0.32 0.38 0.44 0.43 0.51 0.56 0.58 0.61 0.62 0.58 0.49 0.42 0.35 0.29 0.26 0.27 0.26 0.21 0.16 0.15 0.13 0.11 0.09 0.06
0.36 0.32 0.31 0.32 0.33 0.43 0.66 0.88 0.92 0.71 0.56 0.48 0.37 0.28 0.25 0.21 0.24 0.29 0.34 0.32 0.32 0.33 0.32 0.38 0.44 0.48 0.55 0.60 0.59 0.52 0.47 0.40 0.33 0.29 0.30 0.28 0.22 0.15 0.12 0.11 0.11 0.09 0.07
0.34 0.31 0.29 0.27 0.26 0.33 0.53 0.80 0.99 0.94 0.79 0.58 0.35 0.20 0.17 0.15 0.19 0.28 0.35 0.33 0.30 0.26 0.23 0.26 0.31 0.38 0.47 0.57 0.61 0.57 0.52 0.46 0.38 0.33 0.34 0.31 0.22 0.15 0.12 0.10 0.09 0.08 0.06
0.31 0.27 0.24 0.24 0.23 0.26 0.43 0.69 0.88 0.94 0.87 0.77 0.51 0.22 0.16 0.18 0.21 0.30 0.33 0.33 0.28 0.20 0.16 0.18 0.22 0.30 0.40 0.51 0.58 0.59 0.57 0.49 0.38 0.34 0.33 0.32 0.24 0.16 0.12 0.10 0.08 0.07 0.05
0.27 0.20 0.17 0.17 0.19 0.22 0.33 0.54 0.78 0.91 0.86 0.81 0.64 0.29 0.13 0.13 0.16 0.26 0.34 0.37 0.31 0.21 0.15 0.17 0.19 0.26 0.35 0.46 0.52 0.54 0.56 0.50 0.39 0.33 0.30 0.29 0.24 0.17 0.12 0.09 0.08 0.06 0.04
0.25 0.20 0.12 0.11 0.17 0.22 0.28 0.46 0.69 0.85 0.80 0.72 0.59 0.29 0.12 0.11 0.15 0.22 0.31 0.34 0.30 0.22 0.18 0.18 0.19 0.23 0.31 0.40 0.43 0.46 0.49 0.46 0.37 0.30 0.27 0.24 0.22 0.17 0.11 0.07 0.06 0.05 0.03
0.22 0.21 0.18 0.17 0.20 0.23 0.29 0.45 0.65 0.77 0.71 0.64 0.51 0.26 0.13 0.13 0.15 0.23 0.28 0.28 0.26 0.21 0.19 0.19 0.20 0.22 0.27 0.31 0.33 0.36 0.38 0.35 0.29 0.24 0.21 0.18 0.16 0.14 0.10 0.06 0.04 0.03 0.03
0.19 0.20 0.19 0.19 0.21 0.20 0.29 0.45 0.59 0.64 0.58 0.50 0.37 0.20 0.12 0.12 0.15 0.20 0.21 0.20 0.20 0.18 0.18 0.20 0.21 0.23 0.25 0.25 0.25 0.26 0.25 0.22 0.18 0.14 0.12 0.11 0.10 0.08 0.07 0.05 0.03 0.02 0.01
0.19 0.21 0.22 0.23 0.23 0.26 0.34 0.46 0.51 0.49 0.42 0.34 0.26 0.17 0.13 0.13 0.13 0.14 0.16 0.17 0.18 0.18 0.19 0.19 0.19 0.19 0.18 0.17 0.17 0.18 0.16 0.14 0.10 0.07 0.06 0.05 0.05 0.03 0.03 0.02 0.01 0.01 0.01
0.16 0.19 0.23 0.27 0.29 0.31 0.36 0.41 0.41 0.34 0.25 0.19 0.15 0.12 0.10 0.10 0.11 0.12 0.13 0.15 0.17 0.18 0.18 0.17 0.16 0.14 0.11 0.10 0.10 0.10 0.10 0.09 0.06 0.04 0.03 0.02 0.01 0.01 0.01 0.01 0.00 0.00 0.00
0.13 0.14 0.18 0.22 0.25 0.25 0.28 0.29 0.26 0.19 0.12 0.09 0.07 0.06 0.07 0.09 0.09 0.09 0.10 0.14 0.16 0.17 0.15 0.13 0.10 0.08 0.07 0.06 0.05 0.05 0.05 0.04 0.02 0.02 0.01 0.00 0.00 0.00 0.00 0.00 0.00 0.00 0.00

GEFSGL_prec_meanprecacc_042.txt.gz
Total_Precipitation_Accumulation
0.01 0.01 0.01 0.03 0.04 0.06 0.10 0.13 0.14 0.13 0.12 0.13 0.14 0.16 0.17 0.20 0.23 0.28 0.31 0.35 0.46 0.58 0.66 0.70 0.73 0.74 0.76 0.74 0.77 0.71 0.61 0.64 0.61 0.51 0.52 0.51 0.42 0.31 0.19 0.15 0.10 0.08 0.07
0.02 0.02 0.01 0.01 0.02 0.04 0.07 0.10 0.11 0.11 0.11 0.11 0.12 0.13 0.13 0.13 0.19 0.28 0.39 0.41 0.44 0.52 0.74 0.96 0.98 0.98 0.88 0.80 0.87 0.81 0.71 0.77 0.70 0.57 0.58 0.52 0.46 0.36 0.25 0.19 0.11 0.07 0.04
0.01 0.01 0.01 0.01 0.01 0.02 0.03 0.05 0.07 0.09 0.11 0.11 0.12 0.12 0.11 0.10 0.12 0.20 0.32 0.37 0.46 0.59 0.76 0.88 1.01 1.12 1.01 0.91 0.88 0.86 0.84 0.88 0.78 0.63 0.62 0.62 0.55 0.39 0.28 0.18 0.12 0.08 0.04
0.00 0.01 0.01 0.02 0.02 0.02 0.02 0.03 0.04 0.06 0.09 0.11 0.13 0.13 0.13 0.11 0.11 0.16 0.24 0.31 0.43 0.62 0.67 0.62 0.73 0.99 1.09 1.00 0.89 0.83 0.84 0.85 0.76 0.70 0.69 0.70 0.61 0.49 0.34 0.22 0.16 0.09 0.05
0.04 0.04 0.05 0.05 0.06 0.06 0.06 0.06 0.06 0.07 0.08 0.11 0.14 0.15 0.14 0.12 0.10 0.17 0.25 0.21 0.26 0.34 0.37 0.36 0.42 0.61 0.89 1.05 1.00 0.89 0.85 0.79 0.74 0.72 0.72 0.68 0.61 0.55 0.39 0.25 0.17 0.12 0.07
0.05 0.04 0.04 0.05 0.05 0.06 0.06 0.06 0.06 0.08 0.11 0.16 0.19 0.19 0.19 0.13 0.11 0.13 0.15 0.17 0.19 0.22 0.23 0.25 0.25 0.28 0.40 0.64 0.85 0.96 0.99 0.90 0.79 0.74 0.77 0.71 0.58 0.51 0.39 0.23 0.14 0.10 0.10
0.02 0.03 0.04 0.05 0.05 0.06 0.06 0.07 0.09 0.12 0.16 0.21 0.24 0.26 0.27 0.26 0.18 0.12 0.09 0.12 0.16 0.19 0.22 0.23 0.18 0.16 0.23 0.30 0.44 0.59 0.75 0.81 0.80 0.78 0.76 0.75 0.67 0.58 0.46 0.29 0.17 0.11 0.08
0.02 0.03 0.04 0.06 0.07 0.08 0.11 0.13 0.17 0.20 0.22 0.26 0.29 0.31 0.36 0.35 0.25 0.17 0.13 0.11 0.16 0.20 0.23 0.23 0.20 0.18 0.19 0.24 0.30 0.34 0.42 0.51 0.55 0.58 0.64 0.69 0.70 0.65 0.55 0.42 0.26 0.15 0.10
0.04 0.07 0.09 0.11 0.13 0.16 0.19 0.23 0.28 0.31 0.30 0.31 0.32 0.37 0.40 0.43 0.33 0.21 0.17 0.19 0.23 0.23 0.23 0.23 0.23 0.22 0.19 0.16 0.23 0.28 0.31 0.36 0.43 0.49 0.53 0.60 0.66 0.65 0.59 0.44 0.27 0.14 0.10
0.05 0.08 0.11 0.17 0.22 0.26 0.30 0.34 0.37 0.40 0.39 0.38 0.36 0.40 0.44 0.50 0.43 0.25 0.20 0.24 0.31 0.31 0.34 0.32 0.25 0.24 0.22 0.14 0.17 0.22 0.25 0.29 0.33 0.36 0.42 0.47 0.46 0.48 0.53 0.41 0.26 0.13 0.08
0.07 0.09 0.12 0.18 0.28 0.31 0.36 0.41 0.45 0.47 0.48 0.48 0.45 0.45 0.49 0.52 0.52 0.32 0.23 0.25 0.35 0.44 0.45 0.43 0.38 0.26 0.18 0.14 0.16 0.21 0.20 0.25 0.32 0.36 0.37 0.42 0.45 0.43 0.40 0.39 0.29 0.16 0.09
0.12 0.14 0.15 0.21 0.29 0.32 0.42 0.46 0.51 0.55 0.57 0.58 0.59 0.57 0.56 0.55 0.51 0.42 0.27 0.22 0.33 0.51 0.58 0.58 0.55 0.41 0.27 0.20 0.17 0.17 0.16 0.19 0.30 0.37 0.42 0.42 0.43 0.42 0.37 0.35 0.33 0.24 0.14
0.17 0.17 0.21 0.25 0.37 0.51 0.55 0.53 0.57 0.61 0.61 0.62 0.66 0.69 0.69 0.68 0.58 0.43 0.32 0.23 0.29 0.46 0.61 0.68 0.61 0.50 0.42 0.31 0.25 0.20 0.17 0.16 0.24 0.32 0.37 0.40 0.38 0.35 0.36 0.38 0.38 0.30 0.21
0.22 0.21 0.23 0.29 0.42 0.66 0.79 0.73 0.67 0.67 0.66 0.67 0.65 0.67 0.72 0.76 0.71 0.55 0.40 0.30 0.34 0.47 0.55 0.56 0.56 0.56 0.55 0.50 0.38 0.29 0.20 0.19 0.22 0.26 0.32 0.40 0.44 0.42 0.39 0.33 0.32 0.28 0.21
0.26 0.24 0.25 0.32 0.46 0.67 0.84 0.83 0.70 0.68 0.66 0.65 0.65 0.65 0.63 0.63 0.60 0.53 0.45 0.44 0.49 0.57 0.58 0.64 0.62 0.64 0.63 0.61 0.53 0.41 0.32 0.29 0.27 0.28 0.34 0.42 0.44 0.41 0.36 0.30 0.25 0.19 0.14
0.33 0.29 0.30 0.35 0.45 0.65 0.88 0.95 0.75 0.58 0.55 0.53 0.48 0.46 0.45 0.38 0.35 0.36 0.34 0.34 0.40 0.46 0.48 0.62 0.69 0.69 0.69 0.67 0.63 0.54 0.46 0.38 0.31 0.31 0.36 0.41 0.42 0.38 0.33 0.27 0.24 0.19 0.12
0.38 0.35 0.34 0.36 0.41 0.54 0.78 1.02 1.06 0.80 0.58 0.49 0.38 0.28 0.26 0.21 0.24 0.29 0.34 0.32 0.32 0.33 0.35 0.48 0.58 0.62 0.66 0.70 0.68 0.59 0.53 0.45 0.38 0.36 0.40 0.42 0.42 0.37 0.31 0.23 0.21 0.19 0.14
0.36 0.33 0.31 0.32 0.34 0.43 0.65 0.92 1.12 1.09 0.91 0.65 0.37 0.21 0.18 0.16 0.19 0.28 0.35 0.34 0.32 0.27 0.26 0.33 0.43 0.52 0.61 0.70 0.71 0.65 0.61 0.56 0.46 0.41 0.45 0.46 0.42 0.37 0.30 0.23 0.17 0.15 0.12
0.32 0.29 0.26 0.27 0.29 0.34 0.51 0.77 0.98 1.06 1.01 0.89 0.59 0.25 0.17 0.18 0.22 0.30 0.34 0.36 0.35 0.26 0.21 0.25 0.31 0.40 0.52 0.63 0.69 0.69 0.69 0.60 0.48 0.43 0.45 0.48 0.42 0.36 0.29 0.22 0.18 0.16 0.11
0.28 0.22 0.18 0.19 0.23 0.27 0.38 0.61 0.87 1.02 0.97 0.91 0.72 0.36 0.16 0.15 0.21 0.30 0.37 0.42 0.40 0.30 0.25 0.26 0.28 0.35 0.45 0.56 0.63 0.66 0.68 0.61 0.50 0.44 0.42 0.46 0.44 0.36 0.28 0.22 0.18 0.16 0.10
0.26 0.21 0.14 0.14 0.22 0.28 0.34 0.52 0.76 0.94 0.89 0.79 0.65 0.32 0.14 0.17 0.24 0.30 0.38 0.41 0.39 0.32 0.29 0.28 0.28 0.32 0.39 0.49 0.53 0.55 0.59 0.56 0.47 0.41 0.40 0.42 0.44 0.38 0.31 0.23 0.19 0.15 0.10
0.23 0.23 0.20 0.21 0.26 0.28 0.33 0.50 0.71 0.84 0.79 0.70 0.57 0.30 0.15 0.18 0.24 0.33 0.38 0.36 0.33 0.27 0.24 0.25 0.28 0.32 0.35 0.38 0.41 0.45 0.49 0.47 0.41 0.36 0.35 0.37 0.40 0.37 0.33 0.27 0.23 0.18 0.14
0.20 0.21 0.21 0.23 0.26 0.24 0.34 0.50 0.64 0.69 0.64 0.56 0.43 0.27 0.18 0.19 0.21 0.26 0.28 0.26 0.26 0.23 0.22 0.25 0.28 0.30 0.32 0.33 0.34 0.36 0.39 0.35 0.30 0.26 0.28 0.31 0.34 0.33 0.29 0.26 0.22 0.19 0.15
0.19 0.22 0.24 0.25 0.26 0.32 0.40 0.52 0.56 0.53 0.46 0.38 0.30 0.23 0.21 0.20 0.19 0.19 0.21 0.24 0.26 0.27 0.27 0.27 0.27 0.28 0.29 0.29 0.30 0.31 0.32 0.29 0.25 0.22 0.23 0.26 0.28 0.27 0.24 0.24 0.21 0.17 0.15
0.16 0.19 0.24 0.29 0.31 0.35 0.42 0.46 0.46 0.38 0.28 0.21 0.18 0.17 0.15 0.15 0.16 0.18 0.19 0.21 0.25 0.27 0.26 0.25 0.25 0.26 0.24 0.22 0.22 0.24 0.26 0.25 0.22 0.20 0.21 0.24 0.24 0.23 0.21 0.21 0.19 0.16 0.15
0.13 0.14 0.19 0.23 0.26 0.28 0.32 0.34 0.32 0.24 0.16 0.11 0.10 0.12 0.13 0.14 0.15 0.17 0.19 0.23 0.26 0.26 0.24 0.22 0.20 0.20 0.20 0.19 0.18 0.19 0.19 0.18 0.16 0.17 0.18 0.20 0.20 0.20 0.18 0.18 0.17 0.14 0.12

GEFSGL_prec_meanprecacc_048.txt.gz
Total_Precipitation_Accumulation
0.01 0.01 0.01 0.03 0.04 0.06 0.10 0.13 0.14 0.13 0.12 0.13 0.15 0.16 0.18 0.20 0.23 0.28 0.31 0.36 0.46 0.58 0.67 0.70 0.73 0.75 0.78 0.77 0.83 0.84 0.76 0.81 0.77 0.63 0.67 0.71 0.59 0.40 0.24 0.18 0.12 0.10 0.08
0.02 0.02 0.01 0.01 0.02 0.04 0.07 0.10 0.11 0.12 0.11 0.11 0.12 0.13 0.13 0.14 0.19 0.29 0.40 0.41 0.44 0.52 0.74 0.96 0.98 0.98 0.89 0.82 0.90 0.88 0.84 0.94 0.87 0.73 0.80 0.78 0.71 0.53 0.35 0.23 0.12 0.07 0.04
0.01 0.01 0.01 0.01 0.01 0.02 0.03 0.05 0.07 0.09 0.11 0.11 0.12 0.12 0.11 0.10 0.12 0.20 0.33 0.38 0.46 0.60 0.76 0.89 1.01 1.12 1.02 0.92 0.89 0.90 0.93 1.01 0.96 0.84 0.84 0.93 0.90 0.67 0.43 0.24 0.13 0.08 0.04
0.01 0.01 0.01 0.02 0.02 0.02 0.02 0.03 0.04 0.07 0.09 0.11 0.13 0.13 0.13 0.11 0.11 0.16 0.24 0.31 0.44 0.62 0.68 0.62 0.74 0.99 1.09 1.01 0.90 0.85 0.90 0.94 0.93 0.93 0.97 1.05 1.01 0.86 0.58 0.31 0.18 0.10 0.05
0.04 0.04 0.05 0.05 0.06 0.06 0.06 0.06 0.06 0.07 0.08 0.11 0.14 0.15 0.14 0.12 0.10 0.17 0.26 0.22 0.26 0.35 0.38 0.36 0.42 0.61 0.89 1.05 1.01 0.90 0.88 0.85 0.86 0.93 1.00 1.05 0.98 0.89 0.68 0.41 0.23 0.13 0.08
0.05 0.05 0.04 0.05 0.05 0.06 0.06 0.06 0.06 0.08 0.11 0.16 0.19 0.19 0.19 0.13 0.11 0.13 0.15 0.17 0.20 0.23 0.24 0.26 0.26 0.29 0.42 0.65 0.86 0.97 1.01 0.93 0.86 0.89 1.01 1.03 0.92 0.80 0.67 0.46 0.25 0.13 0.10
0.03 0.03 0.04 0.05 0.05 0.06 0.06 0.07 0.09 0.12 0.16 0.21 0.24 0.26 0.27 0.26 0.18 0.12 0.09 0.12 0.16 0.20 0.23 0.25 0.19 0.17 0.24 0.31 0.45 0.61 0.76 0.83 0.85 0.89 0.94 1.01 1.01 0.93 0.75 0.53 0.32 0.18 0.10
0.02 0.03 0.04 0.06 0.07 0.08 0.11 0.13 0.17 0.20 0.22 0.26 0.29 0.32 0.36 0.35 0.26 0.17 0.13 0.12 0.17 0.21 0.25 0.25 0.22 0.20 0.22 0.27 0.33 0.36 0.43 0.52 0.58 0.64 0.76 0.91 1.04 1.05 0.93 0.75 0.53 0.31 0.16
0.04 0.07 0.09 0.11 0.13 0.16 0.20 0.24 0.28 0.31 0.30 0.31 0.32 0.37 0.41 0.43 0.33 0.21 0.18 0.19 0.24 0.25 0.26 0.26 0.26 0.24 0.22 0.21 0.28 0.31 0.33 0.38 0.44 0.53 0.61 0.78 1.00 1.10 1.03 0.84 0.59 0.36 0.23
0.05 0.08 0.11 0.17 0.23 0.26 0.30 0.34 0.38 0.40 0.39 0.39 0.37 0.40 0.45 0.50 0.44 0.26 0.21 0.25 0.32 0.33 0.37 0.37 0.31 0.29 0.26 0.19 0.23 0.27 0.27 0.31 0.36 0.40 0.48 0.57 0.69 0.86 1.00 0.79 0.54 0.35 0.24
0.07 0.09 0.12 0.18 0.28 0.31 0.36 0.41 0.46 0.47 0.48 0.49 0.46 0.46 0.50 0.53 0.52 0.33 0.24 0.26 0.37 0.47 0.48 0.47 0.43 0.32 0.23 0.19 0.21 0.26 0.24 0.29 0.37 0.41 0.43 0.50 0.60 0.70 0.78 0.79 0.59 0.35 0.22
0.12 0.14 0.15 0.22 0.30 0.32 0.42 0.46 0.52 0.56 0.58 0.59 0.60 0.58 0.58 0.57 0.52 0.43 0.27 0.23 0.35 0.54 0.62 0.63 0.61 0.48 0.32 0.25 0.22 0.23 0.21 0.23 0.35 0.43 0.48 0.51 0.54 0.61 0.68 0.72 0.67 0.51 0.30
0.17 0.17 0.21 0.25 0.37 0.52 0.56 0.53 0.57 0.62 0.62 0.62 0.67 0.70 0.70 0.70 0.60 0.43 0.32 0.24 0.30 0.48 0.64 0.72 0.66 0.56 0.47 0.36 0.29 0.25 0.22 0.21 0.28 0.37 0.43 0.46 0.47 0.49 0.62 0.76 0.77 0.67 0.49
0.22 0.21 0.23 0.30 0.43 0.67 0.80 0.74 0.68 0.68 0.67 0.68 0.66 0.67 0.73 0.78 0.72 0.56 0.41 0.31 0.35 0.48 0.58 0.60 0.62 0.62 0.61 0.54 0.42 0.32 0.25 0.23 0.25 0.30 0.38 0.47 0.55 0.60 0.63 0.69 0.71 0.64 0.55
0.26 0.24 0.25 0.32 0.46 0.68 0.85 0.85 0.71 0.69 0.66 0.66 0.65 0.65 0.64 0.63 0.61 0.53 0.46 0.45 0.51 0.58 0.60 0.67 0.66 0.68 0.67 0.65 0.57 0.44 0.35 0.31 0.29 0.30 0.39 0.50 0.57 0.60 0.60 0.60 0.59 0.50 0.41
0.34 0.29 0.30 0.35 0.46 0.66 0.89 0.96 0.76 0.58 0.56 0.53 0.48 0.46 0.45 0.39 0.35 0.36 0.34 0.34 0.41 0.47 0.49 0.65 0.72 0.73 0.74 0.71 0.66 0.57 0.48 0.40 0.33 0.33 0.39 0.49 0.54 0.56 0.54 0.54 0.53 0.45 0.34
0.39 0.35 0.34 0.37 0.42 0.54 0.79 1.04 1.08 0.81 0.59 0.50 0.38 0.28 0.26 0.22 0.24 0.29 0.34 0.33 0.33 0.34 0.36 0.49 0.61 0.66 0.71 0.74 0.71 0.62 0.55 0.47 0.39 0.38 0.42 0.47 0.52 0.53 0.50 0.46 0.48 0.45 0.36
0.36 0.33 0.32 0.33 0.35 0.44 0.66 0.94 1.14 1.11 0.93 0.66 0.38 0.21 0.18 0.16 0.19 0.28 0.35 0.34 0.32 0.27 0.26 0.34 0.44 0.54 0.64 0.73 0.73 0.67 0.63 0.58 0.48 0.43 0.48 0.50 0.50 0.51 0.48 0.41 0.38 0.38 0.34
0.32 0.29 0.26 0.27 0.29 0.35 0.53 0.79 1.00 1.08 1.02 0.90 0.60 0.27 0.18 0.19 0.22 0.31 0.34 0.36 0.35 0.26 0.22 0.26 0.32 0.41 0.54 0.65 0.71 0.72 0.71 0.63 0.51 0.46 0.47 0.52 0.49 0.48 0.46 0.38 0.34 0.37 0.33
0.28 0.22 0.18 0.20 0.24 0.28 0.40 0.63 0.89 1.03 0.98 0.92 0.74 0.37 0.17 0.16 0.22 0.31 0.37 0.43 0.40 0.31 0.26 0.27 0.30 0.37 0.48 0.59 0.65 0.68 0.71 0.64 0.53 0.47 0.46 0.50 0.49 0.46 0.43 0.37 0.31 0.30 0.27
0.26 0.21 0.14 0.14 0.23 0.29 0.35 0.53 0.78 0.95 0.91 0.81 0.66 0.33 0.14 0.18 0.26 0.32 0.39 0.42 0.40 0.33 0.30 0.29 0.30 0.34 0.42 0.51 0.55 0.58 0.62 0.59 0.50 0.44 0.43 0.46 0.48 0.46 0.44 0.39 0.31 0.24 0.23
0.23 0.23 0.20 0.21 0.27 0.30 0.34 0.51 0.72 0.86 0.80 0.71 0.58 0.31 0.16 0.20 0.27 0.35 0.41 0.38 0.35 0.29 0.26 0.27 0.30 0.35 0.38 0.41 0.44 0.48 0.51 0.49 0.43 0.38 0.38 0.41 0.44 0.43 0.43 0.41 0.36 0.29 0.24
0.20 0.21 0.21 0.23 0.27 0.26 0.35 0.52 0.65 0.70 0.65 0.58 0.45 0.29 0.20 0.21 0.22 0.28 0.30 0.29 0.29 0.25 0.24 0.27 0.30 0.33 0.35 0.36 0.36 0.38 0.41 0.37 0.31 0.29 0.31 0.35 0.38 0.38 0.36 0.36 0.34 0.32 0.26
0.19 0.22 0.24 0.26 0.27 0.33 0.42 0.53 0.57 0.53 0.47 0.40 0.32 0.25 0.23 0.23 0.22 0.21 0.24 0.27 0.30 0.30 0.30 0.30 0.29 0.29 0.30 0.30 0.32 0.34 0.35 0.31 0.27 0.24 0.25 0.29 0.32 0.32 0.31 0.32 0.29 0.28 0.26
0.16 0.19 0.24 0.29 0.31 0.36 0.43 0.48 0.46 0.39 0.29 0.23 0.20 0.19 0.17 0.18 0.20 0.21 0.22 0.25 0.29 0.30 0.29 0.29 0.29 0.29 0.27 0.25 0.25 0.27 0.29 0.28 0.25 0.23 0.24 0.28 0.28 0.28 0.27 0.29 0.28 0.28 0.28
0.13 0.14 0.19 0.23 0.26 0.28 0.32 0.35 0.33 0.25 0.17 0.13 0.12 0.14 0.15 0.17 0.20 0.22 0.22 0.26 0.29 0.28 0.27 0.25 0.25 0.26 0.26 0.24 0.23 0.23 0.24 0.22 0.19 0.21 0.22 0.25 0.26 0.26 0.26 0.28 0.28 0.28 0.29

GEFSGL_prec_meanprecacc_054.txt.gz
Total_Precipitation_Accumulation
0.01 0.01 0.01 0.03 0.04 0.06 0.10 0.13 0.14 0.13 0.12 0.13 0.15 0.16 0.18 0.20 0.23 0.28 0.31 0.36 0.46 0.58 0.67 0.70 0.73 0.75 0.78 0.78 0.84 0.85 0.79 0.86 0.85 0.71 0.77 0.81 0.70 0.50 0.34 0.27 0.21 0.20 0.17
0.02 0.02 0.01 0.01 0.02 0.04 0.07 0.10 0.11 0.12 0.11 0.11 0.12 0.13 0.13 0.14 0.19 0.29 0.40 0.41 0.44 0.52 0.74 0.96 0.98 0.98 0.89 0.82 0.90 0.89 0.85 0.97 0.92 0.81 0.89 0.90 0.84 0.65 0.46 0.33 0.22 0.16 0.13
0.01 0.01 0.01 0.01 0.01 0.02 0.03 0.05 0.07 0.09 0.11 0.11 0.12 0.12 0.11 0.10 0.12 0.20 0.33 0.38 0.46 0.60 0.76 0.89 1.01 1.12 1.02 0.92 0.89 0.90 0.93 1.03 0.99 0.89 0.93 1.05 1.07 0.86 0.58 0.36 0.21 0.16 0.11
0.01 0.01 0.01 0.02 0.02 0.02 0.02 0.03 0.04 0.07 0.09 0.11 0.13 0.13 0.13 0.11 0.11 0.16 0.24 0.31 0.44 0.62 0.68 0.62 0.74 0.99 1.09 1.01 0.90 0.85 0.90 0.95 0.95 0.97 1.03 1.16 1.19 1.09 0.79 0.48 0.29 0.16 0.10
0.04 0.04 0.05 0.05 0.06 0.06 0.06 0.06 0.06 0.07 0.08 0.11 0.14 0.15 0.14 0.12 0.10 0.17 0.26 0.22 0.26 0.35 0.38 0.36 0.42 0.61 0.89 1.05 1.01 0.90 0.88 0.85 0.87 0.95 1.05 1.15 1.16 1.15 0.94 0.63 0.38 0.23 0.12
0.05 0.05 0.04 0.05 0.05 0.06 0.06 0.06 0.06 0.08 0.11 0.16 0.19 0.19 0.19 0.13 0.11 0.13 0.15 0.17 0.20 0.23 0.24 0.26 0.26 0.29 0.42 0.65 0.86 0.97 1.01 0.93 0.87 0.90 1.05 1.09 1.08 1.05 0.97 0.79 0.49 0.26 0.16
0.03 0.03 0.04 0.05 0.05 0.06 0.06 0.07 0.09 0.12 0.16 0.21 0.24 0.26 0.27 0.26 0.18 0.12 0.09 0.12 0.16 0.20 0.23 0.25 0.19 0.17 0.24 0.31 0.45 0.61 0.76 0.83 0.85 0.89 0.96 1.06 1.12 1.17 1.08 0.89 0.63 0.39 0.19
0.02 0.03 0.04 0.06 0.07 0.08 0.11 0.13 0.17 0.20 0.22 0.26 0.29 0.32 0.36 0.35 0.26 0.17 0.13 0.12 0.17 0.21 0.25 0.25 0.22 0.20 0.22 0.27 0.33 0.36 0.44 0.52 0.58 0.64 0.77 0.94 1.12 1.24 1.27 1.14 0.92 0.62 0.36
0.04 0.07 0.09 0.11 0.13 0.16 0.20 0.24 0.28 0.31 0.30 0.31 0.32 0.37 0.41 0.43 0.33 0.21 0.18 0.19 0.24 0.25 0.26 0.26 0.26 0.24 0.22 0.21 0.28 0.31 0.34 0.38 0.45 0.53 0.62 0.80 1.08 1.28 1.32 1.28 1.07 0.77 0.50
0.05 0.08 0.11 0.17 0.23 0.26 0.30 0.34 0.38 0.40 0.39 0.39 0.37 0.40 0.45 0.50 0.44 0.26 0.21 0.25 0.32 0.33 0.37 0.37 0.31 0.29 0.26 0.19 0.23 0.27 0.28 0.32 0.37 0.41 0.49 0.59 0.74 1.01 1.24 1.10 0.95 0.76 0.53
0.07 0.09 0.12 0.18 0.28 0.31 0.36 0.41 0.46 0.47 0.48 0.49 0.46 0.46 0.50 0.53 0.52 0.33 0.24 0.26 0.37 0.47 0.48 0.48 0.44 0.33 0.23 0.19 0.22 0.27 0.25 0.30 0.39 0.43 0.45 0.52 0.64 0.79 0.98 1.03 0.90 0.73 0.53
0.12 0.14 0.15 0.22 0.30 0.32 0.42 0.46 0.52 0.56 0.58 0.59 0.60 0.58 0.58 0.57 0.52 0.43 0.27 0.23 0.35 0.54 0.63 0.64 0.62 0.49 0.33 0.25 0.23 0.24 0.24 0.25 0.37 0.45 0.50 0.52 0.56 0.66 0.79 0.91 0.90 0.83 0.61
0.17 0.17 0.21 0.25 0.37 0.52 0.56 0.53 0.57 0.62 0.62 0.62 0.67 0.70 0.70 0.70 0.60 0.43 0.32 0.24 0.30 0.48 0.65 0.73 0.68 0.58 0.49 0.39 0.32 0.28 0.26 0.25 0.32 0.40 0.45 0.48 0.50 0.54 0.72 0.93 1.02 0.99 0.87
0.22 0.21 0.23 0.30 0.43 0.67 0.80 0.74 0.68 0.68 0.67 0.68 0.66 0.67 0.73 0.78 0.72 0.56 0.41 0.31 0.35 0.49 0.59 0.62 0.64 0.65 0.64 0.59 0.46 0.37 0.29 0.28 0.30 0.33 0.41 0.51 0.59 0.65 0.73 0.86 0.99 0.98 0.94
0.26 0.24 0.25 0.32 0.46 0.68 0.85 0.85 0.71 0.69 0.66 0.66 0.65 0.65 0.64 0.63 0.61 0.54 0.46 0.46 0.51 0.59 0.61 0.69 0.69 0.72 0.73 0.71 0.62 0.51 0.42 0.38 0.37 0.36 0.44 0.54 0.60 0.65 0.71 0.77 0.83 0.80 0.71
0.34 0.29 0.30 0.35 0.46 0.66 0.89 0.96 0.76 0.58 0.56 0.53 0.48 0.46 0.45 0.39 0.35 0.37 0.35 0.35 0.42 0.48 0.50 0.66 0.75 0.78 0.80 0.77 0.73 0.64 0.55 0.47 0.40 0.39 0.44 0.53 0.58 0.61 0.64 0.71 0.75 0.71 0.59
0.39 0.35 0.34 0.37 0.42 0.54 0.79 1.04 1.08 0.81 0.59 0.50 0.38 0.28 0.26 0.22 0.25 0.30 0.35 0.33 0.34 0.35 0.37 0.50 0.63 0.69 0.77 0.79 0.77 0.68 0.61 0.52 0.44 0.42 0.47 0.51 0.56 0.58 0.59 0.61 0.69 0.69 0.60
0.36 0.33 0.32 0.33 0.35 0.44 0.66 0.94 1.14 1.11 0.93 0.67 0.38 0.21 0.18 0.17 0.20 0.30 0.37 0.35 0.33 0.29 0.27 0.35 0.45 0.56 0.67 0.76 0.78 0.72 0.67 0.62 0.51 0.46 0.51 0.54 0.54 0.56 0.56 0.54 0.57 0.60 0.56
0.32 0.29 0.26 0.27 0.29 0.35 0.53 0.79 1.00 1.08 1.02 0.90 0.60 0.27 0.18 0.19 0.23 0.32 0.36 0.38 0.37 0.28 0.22 0.26 0.32 0.42 0.56 0.68 0.73 0.75 0.75 0.66 0.53 0.48 0.49 0.54 0.53 0.54 0.53 0.49 0.50 0.58 0.55
0.28 0.22 0.18 0.20 0.24 0.28 0.40 0.63 0.89 1.03 0.98 0.92 0.74 0.38 0.17 0.16 0.23 0.33 0.40 0.45 0.42 0.32 0.26 0.27 0.30 0.38 0.50 0.62 0.68 0.71 0.74 0.66 0.56 0.50 0.48 0.52 0.53 0.52 0.51 0.46 0.44 0.48 0.45
0.26 0.21 0.14 0.14 0.23 0.29 0.35 0.53 0.78 0.95 0.91 0.81 0.67 0.34 0.15 0.19 0.28 0.35 0.42 0.46 0.43 0.35 0.31 0.30 0.31 0.36 0.44 0.53 0.58 0.61 0.65 0.62 0.53 0.47 0.45 0.48 0.51 0.51 0.52 0.48 0.40 0.38 0.38
0.23 0.23 0.20 0.21 0.27 0.30 0.34 0.51 0.72 0.86 0.80 0.71 0.58 0.32 0.17 0.22 0.30 0.38 0.44 0.43 0.39 0.32 0.29 0.30 0.33 0.37 0.40 0.43 0.46 0.51 0.55 0.53 0.47 0.42 0.41 0.44 0.47 0.48 0.49 0.50 0.46 0.39 0.37
0.20 0.21 0.21 0.23 0.27 0.26 0.35 0.52 0.65 0.70 0.66 0.58 0.45 0.29 0.22 0.23 0.25 0.31 0.34 0.33 0.33 0.29 0.27 0.30 0.34 0.35 0.37 0.38 0.38 0.41 0.45 0.41 0.35 0.31 0.34 0.38 0.41 0.42 0.42 0.43 0.42 0.39 0.34
0.19 0.22 0.24 0.26 0.27 0.33 0.42 0.53 0.57 0.53 0.47 0.41 0.33 0.26 0.24 0.25 0.24 0.24 0.28 0.30 0.33 0.33 0.33 0.32 0.32 0.32 0.32 0.32 0.34 0.36 0.37 0.34 0.29 0.27 0.28 0.32 0.34 0.35 0.35 0.37 0.35 0.35 0.33
0.17 0.19 0.24 0.29 0.31 0.36 0.43 0.48 0.47 0.39 0.29 0.23 0.21 0.20 0.19 0.20 0.22 0.24 0.26 0.29 0.32 0.33 0.32 0.32 0.32 0.32 0.30 0.28 0.28 0.29 0.31 0.30 0.27 0.24 0.26 0.30 0.31 0.30 0.30 0.33 0.33 0.34 0.35
0.13 0.15 0.19 0.23 0.26 0.28 0.32 0.35 0.33 0.25 0.17 0.14 0.13 0.15 0.17 0.19 0.23 0.25 0.26 0.30 0.33 0.32 0.30 0.30 0.30 0.31 0.30 0.28 0.26 0.26 0.26 0.23 0.20 0.22 0.23 0.26 0.28 0.29 0.29 0.31 0.33 0.34 0.35

GEFSGL_prec_meanprecacc_060.txt.gz
Total_Precipitation_Accumulation
0.01 0.01 0.01 0.03 0.04 0.06 0.10 0.13 0.14 0.13 0.12 0.13 0.15 0.17 0.18 0.20 0.23 0.28 0.32 0.36 0.47 0.58 0.67 0.71 0.74 0.76 0.79 0.78 0.84 0.86 0.80 0.87 0.86 0.74 0.81 0.86 0.75 0.57 0.45 0.40 0.35 0.36 0.33
0.02 0.02 0.01 0.01 0.02 0.04 0.07 0.10 0.11 0.12 0.12 0.12 0.12 0.13 0.13 0.14 0.19 0.29 0.40 0.42 0.45 0.53 0.75 0.97 0.99 0.99 0.90 0.82 0.91 0.90 0.86 0.99 0.94 0.84 0.93 0.95 0.90 0.72 0.56 0.45 0.34 0.29 0.28
0.01 0.01 0.01 0.01 0.01 0.02 0.04 0.05 0.07 0.09 0.11 0.12 0.12 0.12 0.11 0.11 0.12 0.20 0.33 0.38 0.47 0.60 0.77 0.90 1.02 1.13 1.03 0.93 0.90 0.91 0.94 1.04 1.01 0.91 0.96 1.09 1.13 0.94 0.68 0.46 0.33 0.28 0.25
0.01 0.01 0.01 0.02 0.02 0.02 0.02 0.03 0.04 0.07 0.09 0.11 0.13 0.14 0.13 0.11 0.11 0.17 0.24 0.31 0.44 0.63 0.69 0.63 0.75 1.00 1.10 1.02 0.91 0.86 0.91 0.96 0.97 0.98 1.05 1.19 1.24 1.18 0.91 0.61 0.42 0.30 0.24
0.04 0.04 0.05 0.05 0.06 0.06 0.06 0.06 0.06 0.07 0.08 0.11 0.14 0.15 0.14 0.12 0.10 0.17 0.26 0.22 0.27 0.36 0.39 0.38 0.43 0.62 0.90 1.06 1.01 0.91 0.89 0.86 0.88 0.97 1.06 1.16 1.19 1.21 1.05 0.78 0.55 0.41 0.28
0.05 0.05 0.04 0.05 0.05 0.06 0.06 0.06 0.06 0.08 0.11 0.16 0.19 0.20 0.19 0.13 0.11 0.13 0.15 0.18 0.20 0.23 0.25 0.28 0.28 0.30 0.42 0.65 0.86 0.97 1.02 0.95 0.88 0.92 1.06 1.11 1.09 1.08 1.05 0.92 0.69 0.47 0.34
0.03 0.03 0.04 0.05 0.05 0.06 0.06 0.07 0.09 0.12 0.16 0.21 0.25 0.26 0.27 0.26 0.18 0.12 0.09 0.12 0.17 0.20 0.24 0.27 0.21 0.18 0.25 0.32 0.46 0.62 0.77 0.84 0.85 0.90 0.98 1.07 1.13 1.20 1.14 1.00 0.80 0.62 0.44
0.02 0.03 0.04 0.06 0.07 0.08 0.11 0.13 0.17 0.21 0.23 0.27 0.29 0.32 0.37 0.35 0.26 0.17 0.14 0.12 0.17 0.22 0.26 0.27 0.24 0.22 0.24 0.29 0.35 0.38 0.45 0.53 0.58 0.65 0.78 0.96 1.14 1.27 1.32 1.24 1.08 0.85 0.66
0.04 0.07 0.09 0.11 0.13 0.16 0.20 0.24 0.28 0.31 0.31 0.31 0.33 0.38 0.41 0.44 0.33 0.21 0.18 0.19 0.25 0.26 0.27 0.27 0.27 0.26 0.23 0.21 0.29 0.33 0.36 0.40 0.45 0.54 0.62 0.81 1.09 1.29 1.35 1.36 1.22 0.98 0.76
0.05 0.08 0.11 0.17 0.23 0.26 0.30 0.35 0.38 0.41 0.40 0.39 0.37 0.41 0.46 0.51 0.44 0.26 0.21 0.25 0.32 0.34 0.38 0.38 0.32 0.29 0.27 0.19 0.24 0.30 0.31 0.34 0.39 0.43 0.50 0.59 0.74 1.02 1.25 1.14 1.05 0.94 0.76
0.07 0.09 0.12 0.18 0.28 0.31 0.36 0.41 0.46 0.48 0.49 0.49 0.46 0.46 0.51 0.54 0.53 0.33 0.24 0.26 0.38 0.48 0.50 0.50 0.46 0.33 0.23 0.19 0.22 0.29 0.27 0.33 0.43 0.48 0.49 0.56 0.68 0.83 1.01 1.05 0.96 0.85 0.75
0.12 0.14 0.15 0.22 0.30 0.32 0.42 0.46 0.52 0.56 0.58 0.59 0.60 0.58 0.58 0.58 0.53 0.43 0.27 0.23 0.35 0.55 0.64 0.66 0.64 0.49 0.33 0.25 0.23 0.25 0.24 0.26 0.40 0.50 0.55 0.57 0.60 0.70 0.83 0.95 0.95 0.91 0.79
0.17 0.17 0.21 0.25 0.37 0.52 0.56 0.54 0.58 0.63 0.62 0.63 0.67 0.70 0.71 0.70 0.61 0.44 0.32 0.24 0.30 0.49 0.66 0.74 0.69 0.58 0.49 0.39 0.32 0.28 0.27 0.27 0.36 0.44 0.50 0.52 0.53 0.59 0.78 1.00 1.10 1.08 1.02
0.22 0.21 0.23 0.30 0.43 0.67 0.80 0.74 0.68 0.68 0.67 0.68 0.66 0.68 0.74 0.79 0.74 0.58 0.42 0.32 0.36 0.50 0.60 0.63 0.65 0.66 0.65 0.60 0.48 0.39 0.31 0.33 0.36 0.41 0.49 0.59 0.67 0.73 0.81 0.94 1.07 1.07 1.06
0.26 0.24 0.25 0.32 0.46 0.68 0.85 0.85 0.72 0.70 0.67 0.66 0.65 0.65 0.64 0.64 0.61 0.54 0.46 0.46 0.52 0.60 0.62 0.71 0.72 0.77 0.80 0.78 0.69 0.58 0.48 0.45 0.43 0.45 0.56 0.67 0.71 0.74 0.78 0.84 0.92 0.91 0.82
0.34 0.29 0.30 0.35 0.46 0.66 0.89 0.96 0.76 0.58 0.56 0.53 0.48 0.46 0.45 0.39 0.35 0.37 0.35 0.36 0.43 0.49 0.51 0.68 0.78 0.85 0.89 0.86 0.83 0.74 0.64 0.55 0.49 0.50 0.56 0.66 0.71 0.72 0.72 0.79 0.85 0.81 0.70
0.39 0.35 0.34 0.37 0.42 0.54 0.79 1.04 1.08 0.81 0.59 0.50 0.38 0.28 0.26 0.22 0.25 0.31 0.36 0.34 0.34 0.36 0.39 0.52 0.66 0.75 0.84 0.87 0.87 0.78 0.71 0.62 0.55 0.55 0.61 0.65 0.69 0.70 0.70 0.71 0.78 0.80 0.71
0.36 0.33 0.32 0.33 0.35 0.44 0.66 0.95 1.14 1.11 0.94 0.68 0.38 0.21 0.18 0.17 0.20 0.30 0.37 0.36 0.34 0.31 0.30 0.38 0.49 0.61 0.73 0.84 0.87 0.82 0.78 0.73 0.63 0.59 0.65 0.68 0.67 0.69 0.68 0.65 0.67 0.71 0.67
0.33 0.29 0.27 0.27 0.29 0.35 0.53 0.80 1.01 1.09 1.04 0.91 0.61 0.29 0.19 0.19 0.24 0.33 0.37 0.40 0.40 0.31 0.26 0.30 0.36 0.46 0.61 0.75 0.83 0.86 0.86 0.78 0.65 0.61 0.63 0.67 0.65 0.67 0.66 0.62 0.63 0.70 0.67
0.28 0.22 0.18 0.20 0.24 0.28 0.40 0.63 0.89 1.04 1.00 0.94 0.77 0.40 0.18 0.17 0.26 0.37 0.43 0.49 0.46 0.37 0.31 0.31 0.34 0.41 0.54 0.69 0.78 0.81 0.85 0.78 0.68 0.63 0.61 0.64 0.64 0.63 0.63 0.59 0.58 0.61 0.57
0.26 0.21 0.14 0.14 0.23 0.29 0.35 0.53 0.78 0.96 0.92 0.83 0.69 0.35 0.15 0.20 0.30 0.38 0.47 0.51 0.49 0.42 0.38 0.36 0.36 0.40 0.49 0.60 0.67 0.71 0.76 0.73 0.65 0.61 0.59 0.60 0.61 0.61 0.63 0.61 0.55 0.54 0.53
0.23 0.23 0.20 0.21 0.27 0.30 0.34 0.51 0.73 0.87 0.81 0.73 0.61 0.34 0.18 0.24 0.33 0.42 0.48 0.48 0.45 0.39 0.35 0.36 0.39 0.42 0.46 0.50 0.54 0.61 0.65 0.65 0.60 0.55 0.54 0.55 0.57 0.58 0.60 0.63 0.59 0.55 0.53
0.20 0.21 0.21 0.24 0.27 0.26 0.36 0.53 0.66 0.71 0.67 0.60 0.47 0.31 0.24 0.27 0.28 0.34 0.37 0.37 0.37 0.33 0.32 0.36 0.40 0.42 0.44 0.45 0.46 0.51 0.54 0.52 0.47 0.43 0.45 0.49 0.52 0.52 0.52 0.54 0.53 0.53 0.49
0.20 0.22 0.24 0.26 0.27 0.34 0.43 0.54 0.58 0.54 0.48 0.42 0.34 0.29 0.28 0.29 0.27 0.28 0.31 0.34 0.37 0.38 0.38 0.37 0.37 0.37 0.39 0.40 0.41 0.42 0.44 0.42 0.38 0.36 0.38 0.41 0.44 0.46 0.47 0.50 0.48 0.48 0.46
0.17 0.20 0.25 0.29 0.32 0.37 0.44 0.49 0.48 0.40 0.31 0.26 0.23 0.24 0.23 0.23 0.26 0.28 0.30 0.34 0.37 0.37 0.36 0.36 0.38 0.37 0.35 0.35 0.35 0.35 0.36 0.33 0.30 0.31 0.35 0.40 0.41 0.42 0.44 0.48 0.48 0.48 0.48
0.14 0.16 0.20 0.24 0.27 0.29 0.33 0.37 0.34 0.27 0.20 0.16 0.16 0.18 0.20 0.22 0.25 0.28 0.30 0.34 0.38 0.36 0.36 0.36 0.36 0.37 0.36 0.34 0.32 0.32 0.30 0.25 0.22 0.24 0.28 0.35 0.40 0.41 0.44 0.48 0.48 0.49 0.48

GEFSGL_prec_meanprecacc_066.txt.gz
Total_Precipitation_Accumulation
0.01 0.01 0.01 0.03 0.04 0.06 0.10 0.13 0.15 0.13 0.13 0.14 0.16 0.18 0.19 0.21 0.25 0.31 0.34 0.38 0.48 0.60 0.69 0.72 0.75 0.77 0.80 0.79 0.85 0.86 0.81 0.89 0.88 0.75 0.81 0.87 0.77 0.59 0.48 0.46 0.46 0.50 0.47
0.02 0.02 0.01 0.01 0.02 0.04 0.07 0.10 0.11 0.12 0.12 0.12 0.13 0.14 0.14 0.15 0.21 0.31 0.42 0.43 0.46 0.55 0.77 0.99 1.01 1.01 0.92 0.84 0.92 0.91 0.87 1.00 0.96 0.85 0.94 0.96 0.91 0.73 0.58 0.49 0.41 0.42 0.44
0.01 0.01 0.01 0.01 0.01 0.02 0.04 0.05 0.07 0.09 0.11 0.12 0.13 0.13 0.12 0.12 0.14 0.22 0.35 0.40 0.49 0.62 0.79 0.92 1.04 1.16 1.05 0.95 0.93 0.93 0.96 1.05 1.03 0.93 0.97 1.11 1.14 0.95 0.70 0.49 0.38 0.38 0.39
0.01 0.01 0.01 0.02 0.02 0.02 0.02 0.03 0.04 0.07 0.10 0.12 0.14 0.14 0.14 0.12 0.12 0.18 0.26 0.33 0.47 0.65 0.71 0.66 0.77 1.03 1.14 1.06 0.94 0.90 0.94 0.99 0.99 1.01 1.06 1.20 1.25 1.19 0.93 0.64 0.47 0.37 0.34
0.04 0.04 0.05 0.05 0.06 0.06 0.06 0.06 0.06 0.07 0.08 0.12 0.15 0.15 0.15 0.13 0.11 0.18 0.27 0.23 0.28 0.37 0.41 0.41 0.46 0.65 0.92 1.08 1.03 0.93 0.92 0.90 0.91 1.00 1.08 1.18 1.20 1.23 1.07 0.81 0.61 0.50 0.40
0.05 0.05 0.04 0.05 0.05 0.06 0.06 0.06 0.06 0.08 0.12 0.17 0.20 0.20 0.20 0.14 0.11 0.13 0.16 0.18 0.21 0.24 0.27 0.31 0.31 0.32 0.43 0.66 0.86 0.97 1.02 0.96 0.89 0.94 1.08 1.13 1.13 1.12 1.10 0.96 0.75 0.58 0.47
0.03 0.03 0.04 0.05 0.05 0.06 0.06 0.07 0.09 0.12 0.16 0.21 0.25 0.27 0.29 0.28 0.18 0.12 0.09 0.12 0.17 0.20 0.26 0.29 0.23 0.20 0.28 0.37 0.50 0.64 0.78 0.84 0.85 0.91 0.99 1.09 1.16 1.24 1.22 1.06 0.86 0.72 0.58
0.02 0.03 0.04 0.06 0.07 0.08 0.11 0.13 0.17 0.21 0.23 0.27 0.30 0.33 0.39 0.37 0.26 0.17 0.14 0.12 0.17 0.22 0.27 0.30 0.29 0.27 0.29 0.35 0.41 0.44 0.50 0.57 0.60 0.66 0.78 0.96 1.15 1.30 1.40 1.30 1.15 0.93 0.80
0.04 0.07 0.09 0.11 0.13 0.16 0.20 0.24 0.29 0.31 0.31 0.32 0.34 0.39 0.43 0.47 0.35 0.21 0.18 0.19 0.25 0.26 0.28 0.30 0.32 0.31 0.28 0.23 0.31 0.36 0.38 0.43 0.47 0.54 0.63 0.81 1.09 1.29 1.36 1.39 1.26 1.04 0.85
0.05 0.08 0.11 0.17 0.23 0.26 0.30 0.35 0.38 0.41 0.40 0.39 0.37 0.42 0.47 0.54 0.46 0.26 0.21 0.26 0.33 0.35 0.41 0.42 0.35 0.31 0.29 0.20 0.26 0.33 0.33 0.37 0.42 0.46 0.53 0.60 0.74 1.02 1.25 1.15 1.06 0.98 0.84
0.07 0.09 0.12 0.18 0.28 0.31 0.36 0.41 0.46 0.48 0.49 0.50 0.47 0.47 0.53 0.58 0.56 0.33 0.24 0.26 0.38 0.50 0.52 0.53 0.51 0.35 0.23 0.19 0.22 0.30 0.29 0.35 0.47 0.53 0.56 0.62 0.72 0.85 1.03 1.05 0.96 0.87 0.80
0.12 0.14 0.15 0.22 0.30 0.32 0.42 0.47 0.52 0.57 0.60 0.60 0.62 0.60 0.61 0.62 0.56 0.45 0.27 0.23 0.35 0.55 0.65 0.69 0.69 0.50 0.33 0.25 0.23 0.25 0.24 0.26 0.41 0.52 0.59 0.62 0.65 0.74 0.86 0.98 0.98 0.94 0.84
0.17 0.17 0.21 0.25 0.37 0.52 0.57 0.54 0.58 0.64 0.63 0.63 0.68 0.71 0.72 0.73 0.65 0.45 0.33 0.24 0.30 0.49 0.66 0.75 0.70 0.58 0.49 0.39 0.32 0.28 0.27 0.27 0.36 0.46 0.52 0.56 0.57 0.63 0.85 1.08 1.18 1.17 1.09
0.22 0.21 0.24 0.30 0.43 0.67 0.81 0.74 0.68 0.68 0.68 0.69 0.67 0.69 0.76 0.82 0.80 0.63 0.46 0.34 0.37 0.51 0.62 0.65 0.65 0.66 0.65 0.61 0.49 0.40 0.32 0.34 0.38 0.43 0.53 0.64 0.73 0.81 0.90 1.03 1.17 1.18 1.15
0.27 0.24 0.25 0.32 0.46 0.68 0.86 0.85 0.72 0.70 0.67 0.66 0.65 0.66 0.65 0.65 0.63 0.55 0.47 0.48 0.54 0.62 0.64 0.73 0.75 0.81 0.85 0.84 0.77 0.66 0.57 0.53 0.48 0.49 0.61 0.73 0.78 0.82 0.86 0.95 1.04 1.04 0.93
0.34 0.30 0.31 0.35 0.46 0.67 0.89 0.97 0.76 0.59 0.56 0.54 0.48 0.47 0.45 0.39 0.35 0.37 0.35 0.36 0.43 0.49 0.51 0.68 0.80 0.88 0.96 0.96 0.95 0.87 0.77 0.68 0.60 0.60 0.65 0.74 0.78 0.79 0.81 0.90 0.97 0.94 0.83
0.41 0.37 0.35 0.37 0.42 0.55 0.79 1.04 1.08 0.82 0.60 0.51 0.38 0.28 0.27 0.22 0.25 0.31 0.36 0.34 0.35 0.37 0.39 0.53 0.68 0.80 0.92 0.97 0.98 0.90 0.84 0.76 0.70 0.69 0.72 0.75 0.78 0.79 0.79 0.81 0.89 0.91 0.84
0.39 0.36 0.34 0.34 0.36 0.45 0.67 0.95 1.14 1.12 0.96 0.70 0.41 0.23 0.19 0.17 0.20 0.30 0.37 0.36 0.35 0.32 0.32 0.42 0.55 0.68 0.81 0.94 0.99 0.94 0.90 0.86 0.77 0.72 0.77 0.78 0.78 0.79 0.77 0.75 0.78 0.82 0.80
0.36 0.32 0.29 0.29 0.31 0.36 0.54 0.80 1.01 1.10 1.05 0.93 0.65 0.34 0.21 0.20 0.24 0.34 0.38 0.40 0.42 0.38 0.35 0.39 0.44 0.54 0.70 0.86 0.94 0.98 0.97 0.90 0.78 0.73 0.75 0.78 0.77 0.78 0.77 0.72 0.74 0.82 0.81
0.31 0.24 0.20 0.21 0.25 0.29 0.41 0.64 0.90 1.05 1.01 0.96 0.80 0.44 0.22 0.20 0.29 0.42 0.48 0.53 0.52 0.44 0.39 0.39 0.41 0.48 0.62 0.80 0.89 0.93 0.97 0.90 0.82 0.77 0.74 0.76 0.76 0.75 0.74 0.70 0.69 0.72 0.69
0.27 0.22 0.15 0.15 0.24 0.30 0.36 0.54 0.79 0.97 0.93 0.85 0.72 0.39 0.19 0.22 0.34 0.43 0.55 0.58 0.57 0.49 0.45 0.43 0.43 0.47 0.57 0.70 0.79 0.82 0.87 0.87 0.80 0.76 0.72 0.73 0.75 0.73 0.76 0.74 0.67 0.66 0.66
0.23 0.23 0.21 0.22 0.28 0.31 0.36 0.53 0.75 0.88 0.84 0.77 0.65 0.41 0.24 0.28 0.37 0.46 0.53 0.53 0.49 0.43 0.40 0.41 0.44 0.48 0.54 0.59 0.66 0.74 0.78 0.79 0.77 0.72 0.70 0.70 0.72 0.71 0.73 0.76 0.72 0.68 0.66
0.20 0.22 0.22 0.24 0.28 0.27 0.37 0.55 0.69 0.75 0.72 0.66 0.53 0.38 0.32 0.33 0.34 0.39 0.42 0.41 0.41 0.37 0.37 0.41 0.45 0.48 0.52 0.54 0.56 0.63 0.66 0.64 0.62 0.60 0.63 0.66 0.67 0.67 0.66 0.68 0.67 0.66 0.61
0.20 0.23 0.26 0.27 0.29 0.36 0.45 0.57 0.62 0.59 0.54 0.48 0.40 0.37 0.37 0.36 0.33 0.32 0.36 0.39 0.42 0.44 0.44 0.42 0.41 0.40 0.43 0.46 0.48 0.50 0.53 0.50 0.48 0.50 0.53 0.58 0.61 0.62 0.61 0.63 0.63 0.62 0.59
0.18 0.21 0.26 0.32 0.36 0.41 0.49 0.56 0.55 0.48 0.39 0.34 0.31 0.31 0.31 0.28 0.30 0.32 0.35 0.39 0.43 0.43 0.40 0.40 0.42 0.40 0.38 0.38 0.39 0.40 0.40 0.36 0.32 0.36 0.45 0.54 0.59 0.60 0.58 0.60 0.63 0.64 0.62
0.16 0.18 0.24 0.29 0.32 0.34 0.40 0.46 0.43 0.36 0.29 0.24 0.24 0.27 0.28 0.27 0.30 0.32 0.34 0.39 0.42 0.41 0.40 0.40 0.40 0.41 0.40 0.39 0.36 0.36 0.33 0.27 0.23 0.25 0.31 0.44 0.54 0.56 0.59 0.63 0.65 0.67 0.64